Wetterdaten: Montag, 10.07.2017
Datum Zeit Temp. Aussen Temp. o. S. +5cm Feuchte Auss BlattFeu 1 Luftdruck Regen Sonnenschein Regendauer Solar Windben Empfang
10.07.2017 00:00 20,4 C 19,4 C 18,3 C 75 % 0 lf 1009,2 hPa 0,0 l/m 0 min 0 min 5 W/m 8,4 km/h (2 Bft) 95,74 %
10.07.2017 00:02 20,4 C 19,4 C 18,3 C 75 % 0 lf 1009,1 hPa 0,0 l/m 0 min 0 min 0 W/m 12,6 km/h (3 Bft) 97,56 %
10.07.2017 00:04 20,4 C 19,4 C 18,3 C 75 % 0 lf 1009,1 hPa 0,0 l/m 0 min 0 min 5 W/m 10,5 km/h (2 Bft) 91,49 %
10.07.2017 00:06 20,4 C 19,4 C 18,3 C 75 % 0 lf 1009,0 hPa 0,0 l/m 0 min 0 min 5 W/m 12,6 km/h (3 Bft) 93,62 %
10.07.2017 00:10 20,3 C 19,4 C 18,3 C 75 % 0 lf 1009,0 hPa 0,0 l/m 0 min 0 min 1 W/m 10,5 km/h (2 Bft) 90,62 %
10.07.2017 00:12 20,3 C 19,4 C 18,3 C 75 % 0 lf 1009,0 hPa 0,0 l/m 0 min 0 min 1 W/m 10,5 km/h (2 Bft) 93,62 %
10.07.2017 00:14 20,3 C 19,4 C 18,3 C 75 % 0 lf 1009,0 hPa 0,0 l/m 0 min 0 min 0 W/m 12,6 km/h (3 Bft) 94,59 %
10.07.2017 00:16 20,2 C 19,4 C 18,3 C 75 % 0 lf 1009,0 hPa 0,0 l/m 0 min 0 min 0 W/m 12,6 km/h (3 Bft) 93,62 %
10.07.2017 00:18 20,2 C 18,9 C 18,3 C 76 % 0 lf 1009,0 hPa 0,0 l/m 0 min 0 min 5 W/m 10,5 km/h (2 Bft) 93,48 %
10.07.2017 00:20 20,2 C 18,9 C 18,3 C 76 % 0 lf 1009,0 hPa 0,0 l/m 0 min 0 min 5 W/m 6,3 km/h (2 Bft) 91,49 %
10.07.2017 00:22 20,2 C 18,9 C 18,3 C 76 % 0 lf 1008,9 hPa 0,0 l/m 0 min 0 min 5 W/m 8,4 km/h (2 Bft) 95,74 %
10.07.2017 00:24 20,1 C 18,9 C 18,3 C 76 % 0 lf 1008,9 hPa 0,0 l/m 0 min 0 min 5 W/m 14,6 km/h (3 Bft) 93,62 %
10.07.2017 00:26 20,1 C 18,9 C 18,3 C 76 % 0 lf 1008,9 hPa 0,0 l/m 0 min 0 min 5 W/m 10,5 km/h (2 Bft) 93,62 %
10.07.2017 00:28 20,1 C 18,9 C 18,3 C 76 % 0 lf 1008,9 hPa 0,0 l/m 0 min 0 min 0 W/m 8,4 km/h (2 Bft) 95,74 %
10.07.2017 00:30 20,0 C 18,9 C 17,8 C 76 % 0 lf 1008,9 hPa 0,0 l/m 0 min 0 min 2 W/m 12,6 km/h (3 Bft) 96,30 %
10.07.2017 00:32 20,0 C 18,9 C 17,8 C 76 % 0 lf 1008,9 hPa 0,0 l/m 0 min 0 min 0 W/m 12,6 km/h (3 Bft) 95,92 %
10.07.2017 00:34 19,9 C 18,9 C 17,8 C 76 % 0 lf 1008,8 hPa 0,0 l/m 0 min 0 min 0 W/m 10,5 km/h (2 Bft) 94,59 %
10.07.2017 00:36 19,9 C 18,9 C 17,8 C 76 % 0 lf 1008,9 hPa 0,0 l/m 0 min 0 min 0 W/m 10,5 km/h (2 Bft) 97,87 %
10.07.2017 00:38 19,9 C 18,9 C 17,8 C 76 % 0 lf 1008,8 hPa 0,0 l/m 0 min 0 min 0 W/m 6,3 km/h (2 Bft) 97,87 %
10.07.2017 00:40 19,8 C 18,9 C 17,8 C 76 % 0 lf 1008,8 hPa 0,0 l/m 0 min 0 min 0 W/m 10,5 km/h (2 Bft) 98,15 %
10.07.2017 00:42 19,8 C 18,9 C 17,8 C 76 % 0 lf 1008,8 hPa 0,0 l/m 0 min 0 min 0 W/m 12,6 km/h (3 Bft) 93,62 %
10.07.2017 00:44 19,8 C 18,9 C 17,8 C 76 % 0 lf 1008,8 hPa 0,0 l/m 0 min 0 min 0 W/m 10,5 km/h (2 Bft) 95,65 %
10.07.2017 00:46 19,8 C 18,9 C 17,8 C 76 % 0 lf 1008,8 hPa 0,0 l/m 0 min 0 min 0 W/m 8,4 km/h (2 Bft) 94,00 %
10.07.2017 00:48 19,7 C 18,9 C 17,8 C 76 % 0 lf 1008,8 hPa 0,0 l/m 0 min 0 min 0 W/m 8,4 km/h (2 Bft) 97,87 %
10.07.2017 00:50 19,7 C 18,9 C 17,8 C 76 % 0 lf 1008,8 hPa 0,0 l/m 0 min 0 min 0 W/m 8,4 km/h (2 Bft) 95,74 %
10.07.2017 00:52 19,7 C 18,9 C 17,8 C 76 % 0 lf 1008,7 hPa 0,0 l/m 0 min 0 min 0 W/m 10,5 km/h (2 Bft) 95,74 %
10.07.2017 00:54 19,7 C 18,9 C 17,8 C 76 % 0 lf 1008,7 hPa 0,0 l/m 0 min 0 min 0 W/m 8,4 km/h (2 Bft) 91,67 %
10.07.2017 00:56 19,6 C 18,9 C 17,8 C 76 % 0 lf 1008,7 hPa 0,0 l/m 0 min 0 min 0 W/m 8,4 km/h (2 Bft) 95,74 %
10.07.2017 00:58 19,6 C 18,3 C 17,8 C 76 % 0 lf 1008,7 hPa 0,0 l/m 0 min 0 min 0 W/m 8,4 km/h (2 Bft) 96,30 %
10.07.2017 01:00 19,6 C 18,3 C 17,8 C 76 % 0 lf 1008,7 hPa 0,0 l/m 0 min 0 min 0 W/m 8,4 km/h (2 Bft) 95,74 %
10.07.2017 01:02 19,5 C 18,3 C 17,8 C 76 % 0 lf 1008,7 hPa 0,0 l/m 0 min 0 min 0 W/m 8,4 km/h (2 Bft) 91,49 %
10.07.2017 01:04 19,5 C 18,3 C 17,8 C 76 % 0 lf 1008,8 hPa 0,0 l/m 0 min 0 min 0 W/m 6,3 km/h (2 Bft) 95,92 %
10.07.2017 01:06 19,5 C 18,3 C 17,2 C 76 % 0 lf 1008,8 hPa 0,0 l/m 0 min 0 min 0 W/m 2,1 km/h (1 Bft) 95,74 %
10.07.2017 01:08 19,4 C 18,3 C 17,2 C 76 % 0 lf 1008,8 hPa 0,0 l/m 0 min 0 min 5 W/m 6,3 km/h (2 Bft) 97,87 %
10.07.2017 01:10 19,4 C 18,3 C 17,2 C 76 % 0 lf 1008,8 hPa 0,0 l/m 0 min 0 min 5 W/m 4,2 km/h (1 Bft) 97,14 %
10.07.2017 01:12 19,4 C 18,3 C 17,2 C 76 % 0 lf 1008,8 hPa 0,0 l/m 0 min 0 min 0 W/m 4,2 km/h (1 Bft) 96,23 %
10.07.2017 01:14 19,4 C 18,3 C 17,2 C 76 % 0 lf 1008,8 hPa 0,0 l/m 0 min 0 min 0 W/m 6,3 km/h (2 Bft) 98,00 %
10.07.2017 01:16 19,4 C 18,3 C 17,2 C 76 % 0 lf 1008,7 hPa 0,0 l/m 0 min 0 min 0 W/m 6,3 km/h (2 Bft) 97,96 %
10.07.2017 01:18 19,3 C 18,3 C 17,8 C 76 % 0 lf 1008,7 hPa 0,0 l/m 0 min 0 min 0 W/m 6,3 km/h (2 Bft) 97,14 %
10.07.2017 01:20 19,3 C 18,3 C 17,8 C 76 % 0 lf 1008,7 hPa 0,0 l/m 0 min 0 min 0 W/m 8,4 km/h (2 Bft) 95,74 %
10.07.2017 01:22 19,3 C 18,3 C 17,8 C 77 % 0 lf 1008,6 hPa 0,0 l/m 0 min 0 min 0 W/m 8,4 km/h (2 Bft) 97,87 %
10.07.2017 01:24 19,3 C 18,3 C 17,8 C 77 % 0 lf 1008,6 hPa 0,0 l/m 0 min 0 min 0 W/m 6,3 km/h (2 Bft) 100,00 %
10.07.2017 01:26 19,3 C 18,3 C 17,8 C 77 % 0 lf 1008,6 hPa 0,0 l/m 0 min 0 min 0 W/m 4,2 km/h (1 Bft) 100,00 %
10.07.2017 01:28 19,2 C 18,3 C 17,8 C 77 % 0 lf 1008,6 hPa 0,0 l/m 0 min 0 min 0 W/m 6,3 km/h (2 Bft) 100,00 %
10.07.2017 01:30 19,2 C 18,3 C 17,8 C 77 % 0 lf 1008,6 hPa 0,0 l/m 0 min 0 min 0 W/m 8,4 km/h (2 Bft) 100,00 %
10.07.2017 01:32 19,2 C 18,3 C 17,8 C 77 % 0 lf 1008,6 hPa 0,0 l/m 0 min 0 min 0 W/m 6,3 km/h (2 Bft) 98,11 %
10.07.2017 01:34 19,2 C 18,3 C 17,2 C 77 % 0 lf 1008,6 hPa 0,0 l/m 0 min 0 min 0 W/m 4,2 km/h (1 Bft) 100,00 %
10.07.2017 01:36 19,2 C 18,3 C 17,2 C 77 % 0 lf 1008,6 hPa 0,0 l/m 0 min 0 min 0 W/m 6,3 km/h (2 Bft) 98,00 %
10.07.2017 01:38 19,2 C 18,3 C 17,8 C 77 % 0 lf 1008,6 hPa 0,0 l/m 0 min 0 min 0 W/m 6,3 km/h (2 Bft) 97,87 %
10.07.2017 01:40 19,2 C 18,3 C 17,8 C 77 % 0 lf 1008,6 hPa 0,0 l/m 0 min 0 min 0 W/m 8,4 km/h (2 Bft) 100,00 %
10.07.2017 01:42 19,2 C 18,3 C 17,8 C 77 % 0 lf 1008,6 hPa 0,0 l/m 0 min 0 min 0 W/m 6,3 km/h (2 Bft) 95,74 %
10.07.2017 01:44 19,1 C 18,3 C 17,2 C 77 % 0 lf 1008,6 hPa 0,0 l/m 0 min 0 min 0 W/m 6,3 km/h (2 Bft) 100,00 %
10.07.2017 01:46 19,1 C 18,3 C 17,2 C 77 % 0 lf 1008,6 hPa 0,0 l/m 0 min 0 min 0 W/m 4,2 km/h (1 Bft) 100,00 %
10.07.2017 01:48 19,1 C 18,3 C 17,2 C 77 % 0 lf 1008,6 hPa 0,0 l/m 0 min 0 min 0 W/m 4,2 km/h (1 Bft) 100,00 %
10.07.2017 01:50 19,1 C 18,3 C 17,2 C 77 % 0 lf 1008,6 hPa 0,0 l/m 0 min 0 min 0 W/m 4,2 km/h (1 Bft) 97,96 %
10.07.2017 01:52 19,1 C 18,3 C 17,2 C 77 % 0 lf 1008,6 hPa 0,0 l/m 0 min 0 min 0 W/m 4,2 km/h (1 Bft) 100,00 %
10.07.2017 01:54 19,1 C 18,3 C 17,2 C 77 % 0 lf 1008,7 hPa 0,0 l/m 0 min 0 min 0 W/m 4,2 km/h (1 Bft) 97,87 %
10.07.2017 01:56 19,1 C 18,3 C 17,2 C 77 % 0 lf 1008,7 hPa 0,0 l/m 0 min 0 min 0 W/m 6,3 km/h (2 Bft) 100,00 %
10.07.2017 01:58 19,1 C 18,3 C 17,2 C 77 % 0 lf 1008,7 hPa 0,0 l/m 0 min 0 min 0 W/m 4,2 km/h (1 Bft) 100,00 %
10.07.2017 02:00 19,0 C 18,3 C 17,2 C 77 % 0 lf 1008,7 hPa 0,0 l/m 0 min 0 min 0 W/m 4,2 km/h (1 Bft) 96,23 %
10.07.2017 02:02 19,0 C 18,3 C 17,2 C 77 % 0 lf 1008,6 hPa 0,0 l/m 0 min 0 min 0 W/m 4,2 km/h (1 Bft) 100,00 %
10.07.2017 02:04 19,0 C 18,3 C 17,2 C 77 % 0 lf 1008,6 hPa 0,0 l/m 0 min 0 min 0 W/m 2,1 km/h (1 Bft) 100,00 %
10.07.2017 02:06 19,0 C 18,3 C 17,2 C 77 % 0 lf 1008,7 hPa 0,0 l/m 0 min 0 min 0 W/m 4,2 km/h (1 Bft) 100,00 %
10.07.2017 02:08 19,0 C 18,3 C 17,2 C 77 % 0 lf 1008,6 hPa 0,0 l/m 0 min 0 min 0 W/m 4,2 km/h (1 Bft) 97,87 %
10.07.2017 02:10 18,9 C 18,3 C 17,2 C 77 % 0 lf 1008,6 hPa 0,0 l/m 0 min 0 min 0 W/m 0,0 km/h (0 Bft) 100,00 %
10.07.2017 02:12 18,9 C 18,3 C 17,2 C 77 % 0 lf 1008,6 hPa 0,0 l/m 0 min 0 min 0 W/m 4,2 km/h (1 Bft) 100,00 %
10.07.2017 02:14 18,9 C 17,8 C 17,2 C 77 % 0 lf 1008,5 hPa 0,0 l/m 0 min 0 min 0 W/m 4,2 km/h (1 Bft) 100,00 %
10.07.2017 02:16 18,9 C 17,8 C 17,2 C 77 % 0 lf 1008,6 hPa 0,0 l/m 0 min 0 min 0 W/m 4,2 km/h (1 Bft) 94,34 %
10.07.2017 02:18 18,9 C 17,8 C 17,2 C 77 % 0 lf 1008,6 hPa 0,0 l/m 0 min 0 min 0 W/m 2,1 km/h (1 Bft) 96,00 %
10.07.2017 02:20 18,9 C 17,8 C 17,2 C 77 % 0 lf 1008,5 hPa 0,0 l/m 0 min 0 min 0 W/m 2,1 km/h (1 Bft) 100,00 %
10.07.2017 02:22 18,9 C 17,8 C 17,2 C 77 % 0 lf 1008,6 hPa 0,0 l/m 0 min 0 min 0 W/m 4,2 km/h (1 Bft) 95,74 %
10.07.2017 02:24 18,9 C 17,8 C 17,2 C 77 % 0 lf 1008,5 hPa 0,0 l/m 0 min 0 min 0 W/m 4,2 km/h (1 Bft) 94,74 %
10.07.2017 02:26 18,9 C 17,8 C 17,2 C 78 % 0 lf 1008,5 hPa 0,0 l/m 0 min 0 min 0 W/m 6,3 km/h (2 Bft) 100,00 %
10.07.2017 02:28 18,9 C 17,8 C 17,2 C 78 % 0 lf 1008,4 hPa 0,0 l/m 0 min 0 min 0 W/m 6,3 km/h (2 Bft) 100,00 %
10.07.2017 02:30 18,8 C 17,8 C 17,2 C 78 % 0 lf 1008,5 hPa 0,0 l/m 0 min 0 min 0 W/m 6,3 km/h (2 Bft) 100,00 %
10.07.2017 02:32 18,8 C 18,3 C 17,2 C 78 % 0 lf 1008,5 hPa 0,0 l/m 0 min 0 min 0 W/m 4,2 km/h (1 Bft) 96,00 %
10.07.2017 02:34 18,8 C 18,3 C 17,2 C 78 % 0 lf 1008,4 hPa 0,0 l/m 0 min 0 min 0 W/m 4,2 km/h (1 Bft) 94,74 %
10.07.2017 02:36 18,8 C 18,3 C 17,2 C 78 % 0 lf 1008,4 hPa 0,0 l/m 0 min 0 min 0 W/m 4,2 km/h (1 Bft) 93,62 %
10.07.2017 02:38 18,8 C 18,3 C 17,2 C 78 % 0 lf 1008,3 hPa 0,0 l/m 0 min 0 min 0 W/m 4,2 km/h (1 Bft) 95,65 %
10.07.2017 02:40 18,8 C 17,8 C 17,2 C 78 % 0 lf 1008,3 hPa 0,0 l/m 0 min 0 min 0 W/m 2,1 km/h (1 Bft) 92,45 %
10.07.2017 02:42 18,8 C 17,8 C 17,2 C 78 % 0 lf 1008,3 hPa 0,0 l/m 0 min 0 min 0 W/m 0,0 km/h (0 Bft) 94,00 %
10.07.2017 02:44 18,7 C 17,8 C 17,2 C 78 % 0 lf 1008,3 hPa 0,0 l/m 0 min 0 min 0 W/m 0,0 km/h (0 Bft) 94,74 %
10.07.2017 02:46 18,7 C 17,8 C 17,2 C 78 % 0 lf 1008,3 hPa 0,0 l/m 0 min 0 min 0 W/m 6,3 km/h (2 Bft) 95,74 %
10.07.2017 02:48 18,7 C 17,8 C 17,2 C 78 % 0 lf 1008,3 hPa 0,0 l/m 0 min 0 min 0 W/m 6,3 km/h (2 Bft) 94,34 %
10.07.2017 02:50 18,7 C 17,8 C 17,2 C 78 % 0 lf 1008,4 hPa 0,0 l/m 0 min 0 min 0 W/m 4,2 km/h (1 Bft) 92,00 %
10.07.2017 02:52 18,7 C 18,3 C 17,2 C 78 % 0 lf 1008,5 hPa 0,0 l/m 0 min 0 min 0 W/m 12,6 km/h (3 Bft) 93,48 %
10.07.2017 02:54 18,7 C 17,8 C 17,2 C 79 % 0 lf 1008,5 hPa 0,0 l/m 0 min 0 min 0 W/m 8,4 km/h (2 Bft) 97,37 %
10.07.2017 02:56 18,7 C 17,8 C 17,2 C 79 % 0 lf 1008,4 hPa 0,0 l/m 0 min 0 min 0 W/m 4,2 km/h (1 Bft) 91,49 %
10.07.2017 02:58 18,7 C 17,8 C 17,2 C 79 % 0 lf 1008,4 hPa 0,0 l/m 0 min 0 min 0 W/m 4,2 km/h (1 Bft) 93,62 %
10.07.2017 03:00 18,7 C 17,8 C 17,2 C 79 % 0 lf 1008,5 hPa 0,0 l/m 0 min 0 min 0 W/m 6,3 km/h (2 Bft) 92,45 %
10.07.2017 03:02 18,6 C 17,8 C 17,2 C 79 % 0 lf 1008,4 hPa 0,0 l/m 0 min 0 min 0 W/m 8,4 km/h (2 Bft) 93,62 %
10.07.2017 03:04 18,6 C 17,8 C 17,2 C 79 % 0 lf 1008,3 hPa 0,0 l/m 0 min 0 min 0 W/m 6,3 km/h (2 Bft) 95,92 %
10.07.2017 03:06 18,6 C 17,8 C 17,2 C 79 % 0 lf 1008,3 hPa 0,0 l/m 0 min 0 min 0 W/m 6,3 km/h (2 Bft) 93,62 %
10.07.2017 03:08 18,6 C 17,8 C 17,2 C 79 % 0 lf 1008,2 hPa 0,0 l/m 0 min 0 min 0 W/m 6,3 km/h (2 Bft) 87,23 %
10.07.2017 03:10 18,6 C 17,8 C 17,2 C 79 % 0 lf 1008,2 hPa 0,0 l/m 0 min 0 min 0 W/m 6,3 km/h (2 Bft) 93,62 %
10.07.2017 03:12 18,6 C 17,8 C 17,2 C 79 % 0 lf 1008,2 hPa 0,0 l/m 0 min 0 min 0 W/m 4,2 km/h (1 Bft) 91,49 %
10.07.2017 03:14 18,5 C 17,8 C 17,2 C 79 % 4 lf 1008,1 hPa 0,0 l/m 0 min 0 min 0 W/m 6,3 km/h (2 Bft) 94,74 %
10.07.2017 03:16 18,5 C 17,8 C 17,2 C 79 % 2 lf 1008,1 hPa 0,0 l/m 0 min 0 min 0 W/m 4,2 km/h (1 Bft) 91,84 %
10.07.2017 03:18 18,5 C 17,8 C 17,2 C 79 % 0 lf 1008,1 hPa 0,0 l/m 0 min 0 min 0 W/m 4,2 km/h (1 Bft) 91,49 %
10.07.2017 03:20 18,5 C 17,8 C 16,7 C 79 % 3 lf 1008,1 hPa 0,0 l/m 0 min 0 min 0 W/m 6,3 km/h (2 Bft) 95,74 %
10.07.2017 03:22 18,4 C 17,8 C 16,7 C 79 % 1 lf 1008,1 hPa 0,0 l/m 0 min 0 min 0 W/m 6,3 km/h (2 Bft) 97,87 %
10.07.2017 03:24 18,4 C 17,8 C 16,7 C 80 % 0 lf 1008,1 hPa 0,0 l/m 0 min 0 min 0 W/m 8,4 km/h (2 Bft) 95,65 %
10.07.2017 03:26 18,4 C 17,8 C 16,7 C 80 % 0 lf 1008,1 hPa 0,0 l/m 0 min 0 min 0 W/m 8,4 km/h (2 Bft) 100,00 %
10.07.2017 03:28 18,4 C 17,8 C 16,7 C 80 % 0 lf 1008,1 hPa 0,0 l/m 0 min 0 min 0 W/m 6,3 km/h (2 Bft) 100,00 %
10.07.2017 03:30 18,4 C 17,8 C 16,7 C 80 % 3 lf 1008,0 hPa 0,0 l/m 0 min 0 min 0 W/m 4,2 km/h (1 Bft) 100,00 %
10.07.2017 03:32 18,4 C 17,8 C 16,7 C 80 % 0 lf 1008,0 hPa 0,0 l/m 0 min 0 min 0 W/m 4,2 km/h (1 Bft) 100,00 %
10.07.2017 03:34 18,4 C 17,8 C 16,7 C 80 % 3 lf 1008,0 hPa 0,0 l/m 0 min 2 min 0 W/m 6,3 km/h (2 Bft) 98,11 %
10.07.2017 03:36 18,4 C 17,8 C 16,7 C 80 % 3 lf 1007,9 hPa 0,0 l/m 0 min 0 min 0 W/m 4,2 km/h (1 Bft) 100,00 %
10.07.2017 03:38 18,4 C 17,8 C 16,7 C 80 % 1 lf 1007,9 hPa 0,0 l/m 0 min 0 min 0 W/m 4,2 km/h (1 Bft) 100,00 %
10.07.2017 03:40 18,4 C 17,8 C 16,7 C 80 % 0 lf 1007,9 hPa 0,0 l/m 0 min 0 min 0 W/m 4,2 km/h (1 Bft) 97,96 %
10.07.2017 03:42 18,3 C 17,8 C 16,7 C 80 % 0 lf 1007,9 hPa 0,0 l/m 0 min 0 min 0 W/m 2,1 km/h (1 Bft) 97,87 %
10.07.2017 03:44 18,3 C 17,8 C 16,7 C 80 % 0 lf 1007,8 hPa 0,0 l/m 0 min 0 min 0 W/m 4,2 km/h (1 Bft) 96,23 %
10.07.2017 03:46 18,3 C 17,8 C 16,7 C 80 % 2 lf 1007,8 hPa 0,0 l/m 0 min 0 min 0 W/m 4,2 km/h (1 Bft) 100,00 %
10.07.2017 03:48 18,3 C 17,8 C 16,7 C 80 % 1 lf 1007,8 hPa 0,0 l/m 0 min 0 min 0 W/m 4,2 km/h (1 Bft) 97,92 %
10.07.2017 03:50 18,3 C 17,8 C 16,7 C 80 % 0 lf 1007,8 hPa 0,0 l/m 0 min 0 min 0 W/m 2,1 km/h (1 Bft) 97,87 %
10.07.2017 03:52 18,3 C 17,8 C 16,7 C 80 % 0 lf 1007,9 hPa 0,0 l/m 0 min 0 min 0 W/m 2,1 km/h (1 Bft) 98,11 %
10.07.2017 03:54 18,3 C 17,2 C 16,7 C 80 % 0 lf 1007,8 hPa 0,0 l/m 0 min 0 min 0 W/m 2,1 km/h (1 Bft) 97,37 %
10.07.2017 03:56 18,3 C 17,8 C 16,7 C 80 % 0 lf 1007,8 hPa 0,0 l/m 0 min 0 min 0 W/m 4,2 km/h (1 Bft) 95,74 %
10.07.2017 03:58 18,3 C 17,8 C 16,7 C 80 % 0 lf 1007,9 hPa 0,0 l/m 0 min 0 min 0 W/m 0,0 km/h (0 Bft) 98,00 %
10.07.2017 04:00 18,3 C 17,8 C 16,7 C 80 % 0 lf 1007,7 hPa 0,0 l/m 0 min 0 min 0 W/m 0,0 km/h (0 Bft) 93,48 %
10.07.2017 04:02 18,2 C 17,8 C 16,7 C 80 % 0 lf 1007,7 hPa 0,0 l/m 0 min 0 min 0 W/m 0,0 km/h (0 Bft) 95,83 %
10.07.2017 04:04 18,2 C 17,8 C 16,7 C 80 % 0 lf 1007,7 hPa 0,0 l/m 0 min 0 min 0 W/m 0,0 km/h (0 Bft) 98,00 %
10.07.2017 04:06 18,2 C 17,8 C 16,7 C 80 % 0 lf 1007,6 hPa 0,0 l/m 0 min 0 min 0 W/m 0,0 km/h (0 Bft) 97,87 %
10.07.2017 04:08 18,2 C 17,8 C 16,7 C 80 % 0 lf 1007,7 hPa 0,0 l/m 0 min 0 min 0 W/m 6,3 km/h (2 Bft) 97,87 %
10.07.2017 04:10 18,2 C 17,8 C 16,7 C 80 % 0 lf 1007,6 hPa 0,0 l/m 0 min 0 min 0 W/m 6,3 km/h (2 Bft) 97,83 %
10.07.2017 04:12 18,2 C 17,8 C 16,7 C 80 % 0 lf 1007,7 hPa 0,0 l/m 0 min 0 min 0 W/m 6,3 km/h (2 Bft) 97,62 %
10.07.2017 04:14 18,2 C 17,8 C 16,7 C 80 % 0 lf 1007,6 hPa 0,0 l/m 0 min 0 min 0 W/m 6,3 km/h (2 Bft) 97,87 %
10.07.2017 04:16 18,2 C 17,8 C 16,7 C 81 % 2 lf 1007,7 hPa 0,0 l/m 0 min 0 min 0 W/m 6,3 km/h (2 Bft) 95,92 %
10.07.2017 04:18 18,2 C 17,8 C 16,7 C 81 % 0 lf 1007,6 hPa 0,0 l/m 0 min 0 min 0 W/m 4,2 km/h (1 Bft) 96,00 %
10.07.2017 04:20 18,2 C 17,8 C 16,7 C 81 % 1 lf 1007,6 hPa 0,0 l/m 0 min 0 min 0 W/m 4,2 km/h (1 Bft) 97,87 %
10.07.2017 04:22 18,2 C 17,8 C 16,7 C 81 % 2 lf 1007,6 hPa 0,0 l/m 0 min 2 min 0 W/m 6,3 km/h (2 Bft) 97,83 %
10.07.2017 04:24 18,2 C 17,2 C 16,7 C 81 % 9 lf 1007,6 hPa 0,0 l/m 0 min 2 min 0 W/m 4,2 km/h (1 Bft) 95,74 %
10.07.2017 04:26 18,2 C 17,2 C 16,7 C 81 % 4 lf 1007,5 hPa 0,0 l/m 0 min 2 min 0 W/m 6,3 km/h (2 Bft) 97,62 %
10.07.2017 04:28 18,2 C 17,2 C 16,1 C 81 % 2 lf 1007,6 hPa 0,0 l/m 0 min 2 min 0 W/m 6,3 km/h (2 Bft) 93,88 %
10.07.2017 04:30 18,2 C 17,2 C 16,1 C 81 % 2 lf 1007,6 hPa 0,0 l/m 0 min 0 min 0 W/m 4,2 km/h (1 Bft) 94,00 %
10.07.2017 04:32 18,1 C 17,2 C 16,1 C 81 % 2 lf 1007,5 hPa 0,0 l/m 0 min 0 min 0 W/m 4,2 km/h (1 Bft) 97,83 %
10.07.2017 04:34 18,1 C 17,2 C 16,1 C 81 % 4 lf 1007,5 hPa 0,0 l/m 0 min 0 min 0 W/m 4,2 km/h (1 Bft) 97,87 %
10.07.2017 04:36 18,1 C 17,2 C 16,1 C 81 % 11 lf 1007,6 hPa 0,0 l/m 0 min 2 min 0 W/m 4,2 km/h (1 Bft) 95,74 %
10.07.2017 04:38 18,1 C 17,2 C 15,6 C 81 % 14 lf 1007,5 hPa 0,0 l/m 0 min 2 min 0 W/m 4,2 km/h (1 Bft) 95,74 %
10.07.2017 04:40 18,1 C 17,2 C 15,6 C 82 % 13 lf 1007,5 hPa 0,0 l/m 0 min 2 min 0 W/m 6,3 km/h (2 Bft) 95,12 %
10.07.2017 04:42 18,1 C 16,7 C 15,6 C 82 % 14 lf 1007,5 hPa 0,0 l/m 0 min 2 min 0 W/m 4,2 km/h (1 Bft) 98,00 %
10.07.2017 04:44 18,1 C 16,7 C 15,6 C 82 % 15 lf 1007,5 hPa 0,0 l/m 0 min 2 min 0 W/m 2,1 km/h (1 Bft) 95,92 %
10.07.2017 04:46 18,1 C 16,7 C 15,6 C 82 % 15 lf 1007,4 hPa 0,0 l/m 0 min 2 min 0 W/m 4,2 km/h (1 Bft) 91,49 %
10.07.2017 04:48 18,1 C 16,7 C 15,0 C 83 % 15 lf 1007,5 hPa 0,0 l/m 0 min 2 min 0 W/m 4,2 km/h (1 Bft) 97,62 %
10.07.2017 04:50 18,1 C 16,7 C 15,0 C 83 % 15 lf 1007,4 hPa 0,0 l/m 0 min 2 min 0 W/m 4,2 km/h (1 Bft) 97,87 %
10.07.2017 04:52 18,1 C 16,7 C 15,0 C 83 % 15 lf 1007,5 hPa 0,0 l/m 0 min 2 min 0 W/m 4,2 km/h (1 Bft) 97,96 %
10.07.2017 04:54 18,1 C 16,1 C 15,0 C 83 % 15 lf 1007,5 hPa 0,0 l/m 0 min 2 min 0 W/m 0,0 km/h (0 Bft) 96,00 %
10.07.2017 04:56 18,1 C 16,1 C 15,0 C 83 % 15 lf 1007,4 hPa 0,0 l/m 0 min 2 min 0 W/m 4,2 km/h (1 Bft) 97,83 %
10.07.2017 04:58 18,1 C 16,1 C 15,0 C 83 % 15 lf 1007,4 hPa 0,0 l/m 0 min 2 min 0 W/m 6,3 km/h (2 Bft) 95,74 %
10.07.2017 05:00 18,1 C 16,1 C 15,0 C 83 % 15 lf 1007,3 hPa 0,0 l/m 0 min 2 min 0 W/m 6,3 km/h (2 Bft) 93,62 %
10.07.2017 05:02 18,1 C 16,1 C 15,0 C 83 % 15 lf 1007,3 hPa 0,0 l/m 0 min 2 min 0 W/m 2,1 km/h (1 Bft) 97,87 %
10.07.2017 05:04 18,0 C 16,1 C 15,0 C 83 % 15 lf 1007,3 hPa 0,0 l/m 0 min 2 min 0 W/m 0,0 km/h (0 Bft) 92,68 %
10.07.2017 05:06 18,0 C 16,1 C 14,4 C 83 % 15 lf 1007,2 hPa 0,0 l/m 0 min 2 min 1 W/m 4,2 km/h (1 Bft) 95,74 %
10.07.2017 05:08 18,0 C 16,1 C 14,4 C 83 % 15 lf 1007,2 hPa 0,0 l/m 0 min 2 min 0 W/m 6,3 km/h (2 Bft) 95,74 %
10.07.2017 05:10 18,0 C 16,1 C 14,4 C 83 % 15 lf 1007,2 hPa 0,0 l/m 0 min 2 min 5 W/m 6,3 km/h (2 Bft) 93,62 %
10.07.2017 05:12 17,9 C 16,1 C 14,4 C 84 % 15 lf 1007,1 hPa 0,0 l/m 0 min 2 min 5 W/m 4,2 km/h (1 Bft) 96,00 %
10.07.2017 05:14 17,9 C 16,1 C 14,4 C 84 % 15 lf 1007,1 hPa 0,0 l/m 0 min 0 min 5 W/m 4,2 km/h (1 Bft) 97,83 %
10.07.2017 05:16 17,9 C 16,1 C 14,4 C 84 % 15 lf 1007,1 hPa 0,0 l/m 0 min 2 min 5 W/m 4,2 km/h (1 Bft) 93,62 %
10.07.2017 05:18 17,8 C 16,1 C 14,4 C 84 % 15 lf 1007,1 hPa 0,0 l/m 0 min 0 min 5 W/m 4,2 km/h (1 Bft) 97,87 %
10.07.2017 05:20 17,8 C 16,1 C 14,4 C 84 % 15 lf 1007,1 hPa 0,0 l/m 0 min 0 min 5 W/m 4,2 km/h (1 Bft) 93,88 %
10.07.2017 05:22 17,8 C 16,1 C 14,4 C 84 % 15 lf 1007,0 hPa 0,0 l/m 0 min 0 min 7 W/m 4,2 km/h (1 Bft) 97,87 %
10.07.2017 05:24 17,7 C 16,1 C 14,4 C 84 % 15 lf 1007,0 hPa 0,0 l/m 0 min 0 min 6 W/m 4,2 km/h (1 Bft) 97,87 %
10.07.2017 05:26 17,7 C 16,1 C 15,0 C 84 % 15 lf 1007,0 hPa 0,0 l/m 0 min 0 min 5 W/m 4,2 km/h (1 Bft) 97,56 %
10.07.2017 05:28 17,7 C 16,1 C 15,0 C 84 % 15 lf 1007,0 hPa 0,0 l/m 0 min 0 min 5 W/m 6,3 km/h (2 Bft) 95,74 %
10.07.2017 05:30 17,7 C 16,1 C 15,0 C 84 % 15 lf 1006,9 hPa 0,0 l/m 0 min 0 min 5 W/m 4,2 km/h (1 Bft) 93,62 %
10.07.2017 05:32 17,7 C 16,1 C 15,0 C 85 % 15 lf 1006,9 hPa 0,0 l/m 0 min 2 min 5 W/m 0,0 km/h (0 Bft) 95,74 %
10.07.2017 05:34 17,6 C 16,1 C 15,0 C 85 % 15 lf 1006,8 hPa 0,0 l/m 0 min 2 min 5 W/m 4,2 km/h (1 Bft) 95,74 %
10.07.2017 05:36 17,6 C 16,7 C 15,0 C 85 % 15 lf 1006,9 hPa 0,0 l/m 0 min 0 min 6 W/m 4,2 km/h (1 Bft) 91,49 %
10.07.2017 05:38 17,6 C 16,7 C 15,0 C 85 % 15 lf 1006,8 hPa 0,0 l/m 0 min 0 min 7 W/m 6,3 km/h (2 Bft) 95,65 %
10.07.2017 05:40 17,6 C 16,7 C 15,0 C 85 % 15 lf 1006,8 hPa 0,0 l/m 0 min 0 min 7 W/m 6,3 km/h (2 Bft) 95,74 %
10.07.2017 05:42 17,5 C 16,7 C 15,0 C 85 % 13 lf 1006,8 hPa 0,0 l/m 0 min 0 min 7 W/m 2,1 km/h (1 Bft) 87,23 %
10.07.2017 05:44 17,5 C 16,7 C 15,0 C 85 % 10 lf 1006,8 hPa 0,0 l/m 0 min 0 min 7 W/m 4,2 km/h (1 Bft) 95,74 %
10.07.2017 05:46 17,5 C 16,7 C 15,0 C 85 % 6 lf 1006,9 hPa 0,0 l/m 0 min 2 min 7 W/m 4,2 km/h (1 Bft) 95,74 %
10.07.2017 05:48 17,4 C 16,7 C 15,0 C 86 % 3 lf 1006,9 hPa 0,0 l/m 0 min 2 min 7 W/m 4,2 km/h (1 Bft) 93,62 %
10.07.2017 05:50 17,4 C 16,7 C 15,0 C 85 % 2 lf 1006,8 hPa 0,0 l/m 0 min 2 min 7 W/m 4,2 km/h (1 Bft) 95,65 %
10.07.2017 05:52 17,4 C 16,7 C 15,0 C 85 % 2 lf 1006,8 hPa 0,0 l/m 0 min 2 min 7 W/m 2,1 km/h (1 Bft) 89,36 %
10.07.2017 05:54 17,4 C 16,7 C 15,0 C 86 % 2 lf 1006,8 hPa 0,0 l/m 0 min 0 min 9 W/m 0,0 km/h (0 Bft) 95,74 %
10.07.2017 05:56 17,4 C 16,7 C 15,0 C 86 % 3 lf 1006,7 hPa 0,0 l/m 0 min 0 min 11 W/m 0,0 km/h (0 Bft) 95,74 %
10.07.2017 05:58 17,3 C 16,7 C 15,0 C 86 % 1 lf 1006,8 hPa 0,0 l/m 0 min 2 min 11 W/m 0,0 km/h (0 Bft) 95,74 %
10.07.2017 06:00 17,3 C 16,7 C 15,0 C 86 % 0 lf 1006,8 hPa 0,0 l/m 0 min 0 min 12 W/m 0,0 km/h (0 Bft) 95,74 %
10.07.2017 06:02 17,3 C 16,7 C 15,0 C 86 % 1 lf 1006,8 hPa 0,0 l/m 0 min 0 min 13 W/m 0,0 km/h (0 Bft) 93,48 %
10.07.2017 06:04 17,3 C 16,7 C 15,0 C 86 % 0 lf 1006,8 hPa 0,0 l/m 0 min 0 min 14 W/m 0,0 km/h (0 Bft) 93,62 %
10.07.2017 06:06 17,3 C 16,7 C 15,0 C 86 % 1 lf 1006,8 hPa 0,0 l/m 0 min 0 min 14 W/m 0,0 km/h (0 Bft) 95,74 %
10.07.2017 06:10 17,3 C 16,7 C 15,6 C 86 % 0 lf 1006,7 hPa 0,0 l/m 0 min 0 min 14 W/m 0,0 km/h (0 Bft) 94,85 %
10.07.2017 06:12 17,2 C 16,7 C 15,6 C 86 % 0 lf 1006,8 hPa 0,0 l/m 0 min 0 min 14 W/m 0,0 km/h (0 Bft) 97,83 %
10.07.2017 06:14 17,2 C 16,7 C 15,6 C 86 % 1 lf 1006,8 hPa 0,0 l/m 0 min 0 min 14 W/m 8,4 km/h (2 Bft) 95,74 %
10.07.2017 06:16 17,2 C 16,7 C 15,6 C 86 % 1 lf 1006,8 hPa 0,0 l/m 0 min 0 min 14 W/m 6,3 km/h (2 Bft) 100,00 %
10.07.2017 06:18 17,2 C 16,7 C 15,6 C 86 % 1 lf 1006,9 hPa 0,0 l/m 0 min 0 min 14 W/m 6,3 km/h (2 Bft) 97,87 %
10.07.2017 06:20 17,2 C 16,7 C 15,6 C 86 % 1 lf 1007,0 hPa 0,0 l/m 0 min 0 min 14 W/m 4,2 km/h (1 Bft) 100,00 %
10.07.2017 06:22 17,2 C 16,7 C 15,6 C 86 % 1 lf 1007,0 hPa 0,0 l/m 0 min 0 min 12 W/m 4,2 km/h (1 Bft) 95,74 %
10.07.2017 06:24 17,2 C 16,7 C 15,6 C 87 % 1 lf 1007,0 hPa 0,0 l/m 0 min 0 min 12 W/m 2,1 km/h (1 Bft) 97,83 %
10.07.2017 06:26 17,2 C 16,7 C 15,6 C 87 % 1 lf 1007,0 hPa 0,0 l/m 0 min 0 min 13 W/m 4,2 km/h (1 Bft) 95,74 %
10.07.2017 06:28 17,2 C 16,7 C 15,6 C 87 % 1 lf 1007,0 hPa 0,0 l/m 0 min 0 min 12 W/m 4,2 km/h (1 Bft) 97,87 %
10.07.2017 06:30 17,2 C 16,7 C 15,6 C 87 % 1 lf 1007,1 hPa 0,0 l/m 0 min 0 min 12 W/m 4,2 km/h (1 Bft) 100,00 %
10.07.2017 06:32 17,2 C 16,7 C 15,6 C 87 % 1 lf 1007,1 hPa 0,0 l/m 0 min 0 min 13 W/m 4,2 km/h (1 Bft) 100,00 %
10.07.2017 06:34 17,2 C 16,7 C 15,6 C 87 % 1 lf 1007,1 hPa 0,0 l/m 0 min 0 min 14 W/m 4,2 km/h (1 Bft) 97,87 %
10.07.2017 06:36 17,2 C 16,7 C 15,6 C 87 % 1 lf 1007,2 hPa 0,0 l/m 0 min 0 min 14 W/m 4,2 km/h (1 Bft) 95,65 %
10.07.2017 06:38 17,2 C 16,7 C 15,6 C 87 % 2 lf 1007,2 hPa 0,0 l/m 0 min 0 min 15 W/m 4,2 km/h (1 Bft) 100,00 %
10.07.2017 06:40 17,2 C 16,7 C 15,6 C 87 % 1 lf 1007,2 hPa 0,0 l/m 0 min 0 min 16 W/m 4,2 km/h (1 Bft) 100,00 %
10.07.2017 06:42 17,2 C 16,7 C 15,6 C 87 % 3 lf 1007,2 hPa 0,0 l/m 0 min 0 min 16 W/m 2,1 km/h (1 Bft) 97,87 %
10.07.2017 06:44 17,1 C 16,7 C 15,6 C 87 % 2 lf 1007,2 hPa 0,0 l/m 0 min 0 min 18 W/m 2,1 km/h (1 Bft) 95,74 %
10.07.2017 06:46 17,1 C 16,7 C 15,6 C 87 % 2 lf 1007,2 hPa 0,0 l/m 0 min 0 min 19 W/m 2,1 km/h (1 Bft) 97,87 %
10.07.2017 06:48 17,1 C 16,7 C 15,6 C 87 % 1 lf 1007,2 hPa 0,0 l/m 0 min 0 min 20 W/m 2,1 km/h (1 Bft) 95,65 %
10.07.2017 06:50 17,1 C 16,7 C 15,6 C 87 % 2 lf 1007,2 hPa 0,0 l/m 0 min 0 min 22 W/m 4,2 km/h (1 Bft) 97,87 %
10.07.2017 06:52 17,1 C 16,7 C 15,6 C 87 % 1 lf 1007,3 hPa 0,0 l/m 0 min 0 min 24 W/m 2,1 km/h (1 Bft) 95,74 %
10.07.2017 06:54 17,1 C 16,7 C 15,6 C 87 % 1 lf 1007,2 hPa 0,0 l/m 0 min 0 min 27 W/m 4,2 km/h (1 Bft) 97,87 %
10.07.2017 06:56 17,1 C 16,7 C 16,1 C 87 % 1 lf 1007,2 hPa 0,0 l/m 0 min 0 min 30 W/m 2,1 km/h (1 Bft) 97,87 %
10.07.2017 06:58 17,1 C 16,7 C 16,1 C 87 % 1 lf 1007,3 hPa 0,0 l/m 0 min 0 min 33 W/m 2,1 km/h (1 Bft) 100,00 %
10.07.2017 07:00 17,1 C 16,7 C 16,1 C 87 % 0 lf 1007,2 hPa 0,0 l/m 0 min 0 min 38 W/m 6,3 km/h (2 Bft) 93,62 %
10.07.2017 07:02 17,1 C 17,2 C 16,1 C 87 % 0 lf 1007,3 hPa 0,0 l/m 0 min 0 min 44 W/m 4,2 km/h (1 Bft) 97,87 %
10.07.2017 07:04 17,1 C 17,2 C 16,1 C 87 % 0 lf 1007,3 hPa 0,0 l/m 0 min 0 min 49 W/m 4,2 km/h (1 Bft) 97,87 %
10.07.2017 07:06 17,0 C 17,2 C 16,1 C 87 % 2 lf 1007,2 hPa 0,0 l/m 0 min 0 min 53 W/m 4,2 km/h (1 Bft) 97,87 %
10.07.2017 07:08 17,0 C 17,2 C 16,7 C 87 % 0 lf 1007,3 hPa 0,0 l/m 0 min 0 min 57 W/m 2,1 km/h (1 Bft) 97,87 %
10.07.2017 07:10 17,0 C 17,2 C 16,7 C 87 % 0 lf 1007,3 hPa 0,0 l/m 0 min 0 min 62 W/m 2,1 km/h (1 Bft) 95,65 %
10.07.2017 07:12 17,1 C 17,2 C 16,7 C 87 % 0 lf 1007,4 hPa 0,0 l/m 0 min 2 min 64 W/m 4,2 km/h (1 Bft) 97,87 %
10.07.2017 07:14 17,1 C 17,2 C 16,7 C 87 % 1 lf 1007,4 hPa 0,0 l/m 0 min 2 min 67 W/m 4,2 km/h (1 Bft) 97,87 %
10.07.2017 07:16 17,1 C 17,2 C 16,7 C 87 % 0 lf 1007,2 hPa 0,0 l/m 0 min 2 min 67 W/m 6,3 km/h (2 Bft) 100,00 %
10.07.2017 07:18 17,1 C 17,2 C 16,7 C 87 % 0 lf 1007,2 hPa 0,0 l/m 0 min 0 min 67 W/m 2,1 km/h (1 Bft) 97,87 %
10.07.2017 07:20 17,1 C 17,8 C 16,7 C 87 % 0 lf 1007,2 hPa 0,0 l/m 0 min 0 min 71 W/m 2,1 km/h (1 Bft) 97,87 %
10.07.2017 07:22 17,1 C 17,8 C 17,2 C 87 % 0 lf 1007,1 hPa 0,0 l/m 0 min 0 min 79 W/m 4,2 km/h (1 Bft) 100,00 %
10.07.2017 07:24 17,1 C 17,8 C 17,2 C 87 % 0 lf 1007,2 hPa 0,0 l/m 0 min 0 min 88 W/m 2,1 km/h (1 Bft) 97,87 %
10.07.2017 07:26 17,1 C 17,8 C 17,2 C 87 % 0 lf 1007,3 hPa 0,0 l/m 0 min 0 min 91 W/m 2,1 km/h (1 Bft) 97,87 %
10.07.2017 07:28 17,1 C 17,8 C 17,2 C 87 % 0 lf 1007,3 hPa 0,0 l/m 0 min 0 min 95 W/m 2,1 km/h (1 Bft) 97,87 %
10.07.2017 07:30 17,1 C 18,3 C 17,8 C 87 % 0 lf 1007,3 hPa 0,0 l/m 0 min 0 min 102 W/m 4,2 km/h (1 Bft) 97,87 %
10.07.2017 07:32 17,1 C 18,3 C 17,8 C 87 % 0 lf 1007,2 hPa 0,0 l/m 0 min 0 min 109 W/m 4,2 km/h (1 Bft) 97,87 %
10.07.2017 07:34 17,2 C 18,3 C 17,8 C 87 % 0 lf 1007,3 hPa 0,0 l/m 0 min 0 min 108 W/m 6,3 km/h (2 Bft) 97,83 %
10.07.2017 07:36 17,2 C 18,3 C 17,8 C 87 % 0 lf 1007,2 hPa 0,0 l/m 0 min 0 min 100 W/m 6,3 km/h (2 Bft) 97,87 %
10.07.2017 07:38 17,3 C 18,3 C 17,8 C 87 % 0 lf 1007,2 hPa 0,0 l/m 0 min 0 min 88 W/m 6,3 km/h (2 Bft) 97,87 %
10.07.2017 07:40 17,3 C 18,3 C 17,8 C 87 % 0 lf 1007,2 hPa 0,0 l/m 0 min 0 min 83 W/m 4,2 km/h (1 Bft) 97,87 %
10.07.2017 07:42 17,4 C 18,3 C 17,8 C 87 % 0 lf 1007,2 hPa 0,0 l/m 0 min 0 min 81 W/m 4,2 km/h (1 Bft) 97,87 %
10.07.2017 07:44 17,4 C 18,3 C 17,8 C 87 % 0 lf 1007,1 hPa 0,0 l/m 0 min 0 min 84 W/m 4,2 km/h (1 Bft) 97,87 %
10.07.2017 07:46 17,4 C 18,9 C 17,8 C 87 % 0 lf 1007,1 hPa 0,0 l/m 0 min 0 min 86 W/m 4,2 km/h (1 Bft) 95,65 %
10.07.2017 07:48 17,4 C 18,9 C 17,8 C 87 % 0 lf 1007,1 hPa 0,0 l/m 0 min 0 min 89 W/m 6,3 km/h (2 Bft) 100,00 %
10.07.2017 07:50 17,4 C 18,9 C 17,8 C 87 % 0 lf 1007,1 hPa 0,0 l/m 0 min 0 min 93 W/m 4,2 km/h (1 Bft) 97,87 %
10.07.2017 07:52 17,5 C 18,9 C 17,8 C 86 % 0 lf 1007,1 hPa 0,0 l/m 0 min 0 min 98 W/m 6,3 km/h (2 Bft) 95,74 %
10.07.2017 07:54 17,5 C 18,9 C 18,3 C 86 % 0 lf 1007,1 hPa 0,0 l/m 0 min 0 min 104 W/m 6,3 km/h (2 Bft) 95,74 %
10.07.2017 07:56 17,6 C 18,9 C 18,3 C 86 % 0 lf 1007,1 hPa 0,0 l/m 0 min 0 min 108 W/m 6,3 km/h (2 Bft) 97,87 %
10.07.2017 07:58 17,6 C 18,9 C 18,3 C 86 % 0 lf 1007,1 hPa 0,0 l/m 0 min 0 min 107 W/m 6,3 km/h (2 Bft) 97,83 %
10.07.2017 08:00 17,7 C 18,9 C 18,3 C 86 % 0 lf 1007,1 hPa 0,0 l/m 0 min 0 min 109 W/m 6,3 km/h (2 Bft) 97,87 %
10.07.2017 08:02 17,7 C 18,9 C 18,3 C 86 % 0 lf 1007,1 hPa 0,0 l/m 0 min 0 min 116 W/m 2,1 km/h (1 Bft) 95,74 %
10.07.2017 08:04 17,8 C 18,9 C 18,3 C 86 % 0 lf 1007,1 hPa 0,0 l/m 0 min 0 min 125 W/m 6,3 km/h (2 Bft) 97,87 %
10.07.2017 08:06 17,8 C 19,4 C 18,3 C 86 % 0 lf 1007,1 hPa 0,0 l/m 0 min 0 min 131 W/m 6,3 km/h (2 Bft) 93,62 %
10.07.2017 08:08 17,8 C 19,4 C 18,3 C 86 % 0 lf 1007,0 hPa 0,0 l/m 0 min 0 min 132 W/m 4,2 km/h (1 Bft) 95,74 %
10.07.2017 08:10 17,8 C 19,4 C 18,3 C 86 % 0 lf 1007,0 hPa 0,0 l/m 0 min 0 min 128 W/m 4,2 km/h (1 Bft) 97,83 %
10.07.2017 08:12 17,9 C 18,9 C 18,9 C 86 % 0 lf 1007,1 hPa 0,0 l/m 0 min 0 min 129 W/m 4,2 km/h (1 Bft) 97,87 %
10.07.2017 08:14 17,9 C 19,4 C 18,9 C 86 % 0 lf 1007,0 hPa 0,0 l/m 0 min 0 min 131 W/m 4,2 km/h (1 Bft) 95,74 %
10.07.2017 08:16 17,9 C 19,4 C 18,9 C 85 % 0 lf 1007,1 hPa 0,0 l/m 0 min 0 min 132 W/m 2,1 km/h (1 Bft) 93,62 %
10.07.2017 08:18 17,9 C 20,0 C 18,9 C 85 % 0 lf 1007,1 hPa 0,0 l/m 0 min 0 min 129 W/m 4,2 km/h (1 Bft) 95,74 %
10.07.2017 08:20 18,0 C 20,0 C 18,9 C 85 % 0 lf 1007,1 hPa 0,0 l/m 0 min 0 min 123 W/m 4,2 km/h (1 Bft) 95,74 %
10.07.2017 08:22 18,1 C 20,0 C 18,9 C 86 % 0 lf 1007,1 hPa 0,0 l/m 0 min 0 min 117 W/m 4,2 km/h (1 Bft) 91,30 %
10.07.2017 08:24 18,1 C 20,0 C 18,9 C 86 % 0 lf 1007,1 hPa 0,0 l/m 0 min 0 min 112 W/m 4,2 km/h (1 Bft) 91,49 %
10.07.2017 08:26 18,1 C 19,4 C 18,9 C 85 % 0 lf 1007,1 hPa 0,0 l/m 0 min 0 min 111 W/m 4,2 km/h (1 Bft) 91,49 %
10.07.2017 08:28 18,2 C 19,4 C 18,9 C 85 % 0 lf 1007,0 hPa 0,0 l/m 0 min 0 min 111 W/m 4,2 km/h (1 Bft) 93,62 %
10.07.2017 08:30 18,2 C 20,0 C 18,9 C 85 % 0 lf 1007,0 hPa 0,0 l/m 0 min 0 min 111 W/m 2,1 km/h (1 Bft) 95,74 %
10.07.2017 08:32 18,2 C 20,0 C 18,9 C 85 % 0 lf 1007,1 hPa 0,0 l/m 0 min 0 min 112 W/m 6,3 km/h (2 Bft) 93,48 %
10.07.2017 08:34 18,3 C 20,0 C 18,9 C 85 % 0 lf 1007,0 hPa 0,0 l/m 0 min 0 min 113 W/m 4,2 km/h (1 Bft) 95,74 %
10.07.2017 08:36 18,3 C 19,4 C 18,9 C 85 % 0 lf 1006,9 hPa 0,0 l/m 0 min 0 min 114 W/m 6,3 km/h (2 Bft) 93,62 %
10.07.2017 08:38 18,3 C 19,4 C 18,9 C 85 % 0 lf 1006,9 hPa 0,0 l/m 0 min 0 min 113 W/m 4,2 km/h (1 Bft) 93,62 %
10.07.2017 08:40 18,4 C 19,4 C 18,9 C 85 % 0 lf 1006,8 hPa 0,0 l/m 0 min 0 min 113 W/m 4,2 km/h (1 Bft) 95,74 %
10.07.2017 08:42 18,4 C 19,4 C 18,9 C 85 % 0 lf 1006,8 hPa 0,0 l/m 0 min 0 min 114 W/m 2,1 km/h (1 Bft) 91,49 %
10.07.2017 08:44 18,4 C 19,4 C 18,9 C 85 % 0 lf 1006,8 hPa 0,0 l/m 0 min 0 min 117 W/m 4,2 km/h (1 Bft) 93,48 %
10.07.2017 08:46 18,4 C 19,4 C 18,9 C 85 % 0 lf 1006,9 hPa 0,0 l/m 0 min 0 min 118 W/m 4,2 km/h (1 Bft) 89,36 %
10.07.2017 08:48 18,5 C 20,0 C 19,4 C 86 % 0 lf 1006,9 hPa 0,0 l/m 0 min 0 min 119 W/m 4,2 km/h (1 Bft) 89,36 %
10.07.2017 08:50 18,6 C 20,0 C 19,4 C 86 % 0 lf 1006,9 hPa 0,0 l/m 0 min 0 min 122 W/m 4,2 km/h (1 Bft) 93,62 %
10.07.2017 08:52 18,6 C 19,4 C 19,4 C 85 % 0 lf 1006,9 hPa 0,0 l/m 0 min 0 min 133 W/m 4,2 km/h (1 Bft) 93,62 %
10.07.2017 08:54 18,6 C 19,4 C 19,4 C 85 % 0 lf 1006,8 hPa 0,0 l/m 0 min 0 min 145 W/m 4,2 km/h (1 Bft) 93,62 %
10.07.2017 08:56 18,6 C 19,4 C 19,4 C 85 % 0 lf 1006,9 hPa 0,0 l/m 0 min 0 min 156 W/m 0,0 km/h (0 Bft) 91,30 %
10.07.2017 08:58 18,7 C 20,0 C 20,0 C 85 % 0 lf 1006,8 hPa 0,0 l/m 0 min 0 min 164 W/m 2,1 km/h (1 Bft) 95,74 %
10.07.2017 09:00 18,7 C 20,0 C 20,0 C 86 % 0 lf 1006,8 hPa 0,0 l/m 0 min 0 min 165 W/m 4,2 km/h (1 Bft) 91,49 %
10.07.2017 09:02 18,7 C 20,6 C 20,0 C 86 % 0 lf 1006,9 hPa 0,0 l/m 0 min 0 min 166 W/m 4,2 km/h (1 Bft) 93,62 %
10.07.2017 09:04 18,8 C 20,6 C 20,0 C 86 % 0 lf 1006,8 hPa 0,0 l/m 0 min 0 min 170 W/m 4,2 km/h (1 Bft) 93,62 %
10.07.2017 09:06 18,8 C 21,1 C 20,6 C 86 % 0 lf 1006,9 hPa 0,0 l/m 0 min 0 min 177 W/m 6,3 km/h (2 Bft) 95,74 %
10.07.2017 09:08 18,9 C 21,1 C 20,6 C 86 % 0 lf 1006,9 hPa 0,0 l/m 0 min 0 min 188 W/m 4,2 km/h (1 Bft) 95,65 %
10.07.2017 09:10 18,9 C 21,1 C 20,6 C 86 % 0 lf 1006,9 hPa 0,0 l/m 0 min 0 min 199 W/m 4,2 km/h (1 Bft) 93,62 %
10.07.2017 09:12 19,0 C 21,7 C 21,1 C 86 % 0 lf 1006,9 hPa 0,0 l/m 0 min 0 min 210 W/m 4,2 km/h (1 Bft) 93,62 %
10.07.2017 09:14 19,1 C 22,2 C 21,1 C 86 % 0 lf 1007,0 hPa 0,0 l/m 0 min 0 min 232 W/m 4,2 km/h (1 Bft) 97,87 %
10.07.2017 09:16 19,2 C 22,2 C 21,7 C 86 % 0 lf 1007,0 hPa 0,0 l/m 2 min 0 min 259 W/m 6,3 km/h (2 Bft) 95,74 %
10.07.2017 09:18 19,3 C 22,8 C 21,7 C 86 % 0 lf 1007,0 hPa 0,0 l/m 0 min 0 min 257 W/m 8,4 km/h (2 Bft) 97,87 %
10.07.2017 09:20 19,3 C 23,3 C 22,2 C 86 % 0 lf 1006,9 hPa 0,0 l/m 2 min 0 min 274 W/m 8,4 km/h (2 Bft) 100,00 %
10.07.2017 09:22 19,4 C 23,3 C 22,2 C 86 % 0 lf 1006,9 hPa 0,0 l/m 0 min 0 min 262 W/m 8,4 km/h (2 Bft) 100,00 %
10.07.2017 09:24 19,5 C 23,3 C 22,2 C 86 % 0 lf 1006,9 hPa 0,0 l/m 0 min 0 min 262 W/m 6,3 km/h (2 Bft) 100,00 %
10.07.2017 09:26 19,6 C 23,9 C 22,2 C 86 % 0 lf 1006,9 hPa 0,0 l/m 0 min 0 min 254 W/m 6,3 km/h (2 Bft) 100,00 %
10.07.2017 09:28 19,6 C 23,9 C 22,2 C 85 % 0 lf 1006,9 hPa 0,0 l/m 0 min 0 min 263 W/m 6,3 km/h (2 Bft) 95,74 %
10.07.2017 09:30 19,7 C 23,9 C 22,2 C 85 % 0 lf 1006,9 hPa 0,0 l/m 0 min 0 min 264 W/m 10,5 km/h (2 Bft) 100,00 %
10.07.2017 09:32 19,8 C 23,3 C 22,2 C 85 % 0 lf 1006,8 hPa 0,0 l/m 0 min 0 min 251 W/m 10,5 km/h (2 Bft) 100,00 %
10.07.2017 09:34 19,9 C 22,8 C 22,2 C 84 % 0 lf 1006,7 hPa 0,0 l/m 0 min 0 min 236 W/m 10,5 km/h (2 Bft) 100,00 %
10.07.2017 09:36 19,9 C 22,8 C 22,2 C 83 % 0 lf 1006,7 hPa 0,0 l/m 0 min 0 min 231 W/m 12,6 km/h (3 Bft) 97,87 %
10.07.2017 09:38 20,0 C 22,8 C 22,2 C 82 % 0 lf 1006,7 hPa 0,0 l/m 0 min 0 min 233 W/m 10,5 km/h (2 Bft) 100,00 %
10.07.2017 09:40 20,1 C 23,3 C 22,2 C 81 % 0 lf 1006,8 hPa 0,0 l/m 0 min 0 min 252 W/m 10,5 km/h (2 Bft) 100,00 %
10.07.2017 09:42 20,1 C 22,8 C 22,2 C 81 % 0 lf 1006,8 hPa 0,0 l/m 0 min 0 min 267 W/m 10,5 km/h (2 Bft) 100,00 %
10.07.2017 09:44 20,2 C 23,3 C 22,2 C 80 % 0 lf 1006,7 hPa 0,0 l/m 2 min 0 min 292 W/m 10,5 km/h (2 Bft) 97,87 %
10.07.2017 09:46 20,3 C 24,4 C 22,8 C 80 % 0 lf 1006,8 hPa 0,0 l/m 2 min 0 min 363 W/m 10,5 km/h (2 Bft) 97,87 %
10.07.2017 09:48 20,4 C 26,7 C 24,4 C 80 % 0 lf 1006,7 hPa 0,0 l/m 2 min 0 min 460 W/m 10,5 km/h (2 Bft) 97,87 %
10.07.2017 09:50 20,6 C 27,8 C 26,1 C 80 % 0 lf 1006,7 hPa 0,0 l/m 2 min 0 min 707 W/m 12,6 km/h (3 Bft) 100,00 %
10.07.2017 09:52 20,7 C 28,3 C 27,8 C 79 % 0 lf 1006,7 hPa 0,0 l/m 2 min 0 min 733 W/m 6,3 km/h (2 Bft) 97,87 %
10.07.2017 09:54 20,8 C 28,9 C 29,4 C 79 % 0 lf 1006,7 hPa 0,0 l/m 2 min 0 min 777 W/m 12,6 km/h (3 Bft) 100,00 %
10.07.2017 09:56 21,0 C 27,8 C 30,0 C 77 % 0 lf 1006,7 hPa 0,0 l/m 2 min 0 min 782 W/m 14,6 km/h (3 Bft) 100,00 %
10.07.2017 09:58 21,2 C 27,8 C 30,6 C 77 % 0 lf 1006,7 hPa 0,0 l/m 2 min 0 min 791 W/m 10,5 km/h (2 Bft) 97,87 %
10.07.2017 10:00 21,4 C 28,3 C 30,6 C 77 % 0 lf 1006,7 hPa 0,0 l/m 2 min 0 min 784 W/m 8,4 km/h (2 Bft) 100,00 %
10.07.2017 10:02 21,6 C 28,9 C 31,1 C 76 % 0 lf 1006,7 hPa 0,0 l/m 2 min 0 min 839 W/m 10,5 km/h (2 Bft) 97,87 %
10.07.2017 10:04 21,7 C 27,2 C 30,0 C 75 % 0 lf 1006,7 hPa 0,0 l/m 2 min 0 min 617 W/m 10,5 km/h (2 Bft) 100,00 %
10.07.2017 10:06 21,9 C 27,2 C 28,9 C 74 % 0 lf 1006,7 hPa 0,0 l/m 2 min 0 min 475 W/m 8,4 km/h (2 Bft) 97,83 %
10.07.2017 10:08 22,0 C 27,8 C 28,3 C 74 % 0 lf 1006,6 hPa 0,0 l/m 2 min 0 min 486 W/m 6,3 km/h (2 Bft) 100,00 %
10.07.2017 10:10 22,2 C 29,4 C 28,9 C 75 % 0 lf 1006,5 hPa 0,0 l/m 2 min 0 min 450 W/m 16,7 km/h (3 Bft) 100,00 %
10.07.2017 10:12 22,4 C 30,6 C 29,4 C 75 % 0 lf 1006,6 hPa 0,0 l/m 2 min 0 min 549 W/m 10,5 km/h (2 Bft) 100,00 %
10.07.2017 10:14 22,6 C 31,1 C 30,0 C 75 % 0 lf 1006,7 hPa 0,0 l/m 2 min 0 min 845 W/m 8,4 km/h (2 Bft) 100,00 %
10.07.2017 10:16 22,8 C 30,0 C 29,4 C 73 % 0 lf 1006,6 hPa 0,0 l/m 2 min 0 min 659 W/m 6,3 km/h (2 Bft) 100,00 %
10.07.2017 10:18 22,9 C 31,1 C 27,8 C 72 % 0 lf 1006,7 hPa 0,0 l/m 2 min 0 min 405 W/m 10,5 km/h (2 Bft) 100,00 %
10.07.2017 10:20 23,0 C 31,7 C 28,9 C 72 % 0 lf 1006,6 hPa 0,0 l/m 2 min 0 min 572 W/m 10,5 km/h (2 Bft) 100,00 %
10.07.2017 10:22 23,1 C 30,6 C 30,0 C 72 % 0 lf 1006,6 hPa 0,0 l/m 2 min 0 min 783 W/m 8,4 km/h (2 Bft) 100,00 %
10.07.2017 10:24 23,3 C 33,9 C 31,1 C 73 % 0 lf 1006,6 hPa 0,0 l/m 2 min 0 min 783 W/m 8,4 km/h (2 Bft) 97,87 %
10.07.2017 10:26 23,6 C 34,4 C 31,7 C 72 % 0 lf 1006,7 hPa 0,0 l/m 2 min 0 min 780 W/m 8,4 km/h (2 Bft) 95,74 %
10.07.2017 10:28 23,7 C 33,9 C 32,2 C 72 % 0 lf 1006,7 hPa 0,0 l/m 2 min 0 min 792 W/m 8,4 km/h (2 Bft) 100,00 %
10.07.2017 10:30 24,0 C 35,0 C 32,2 C 70 % 0 lf 1006,7 hPa 0,0 l/m 2 min 0 min 784 W/m 14,6 km/h (3 Bft) 100,00 %
10.07.2017 10:32 24,2 C 33,3 C 32,8 C 68 % 0 lf 1006,7 hPa 0,0 l/m 2 min 0 min 760 W/m 10,5 km/h (2 Bft) 100,00 %
10.07.2017 10:34 24,4 C 33,9 C 32,2 C 69 % 0 lf 1006,7 hPa 0,0 l/m 2 min 0 min 799 W/m 10,5 km/h (2 Bft) 100,00 %
10.07.2017 10:36 24,6 C 33,3 C 31,1 C 68 % 0 lf 1006,7 hPa 0,0 l/m 2 min 0 min 823 W/m 14,6 km/h (3 Bft) 100,00 %
10.07.2017 10:38 24,7 C 33,3 C 31,1 C 66 % 0 lf 1006,7 hPa 0,0 l/m 2 min 0 min 639 W/m 12,6 km/h (3 Bft) 97,87 %
10.07.2017 10:40 24,8 C 32,8 C 30,6 C 66 % 0 lf 1006,7 hPa 0,0 l/m 2 min 0 min 622 W/m 10,5 km/h (2 Bft) 95,74 %
10.07.2017 10:42 24,9 C 31,1 C 30,0 C 65 % 0 lf 1006,7 hPa 0,0 l/m 2 min 0 min 620 W/m 14,6 km/h (3 Bft) 97,83 %
10.07.2017 10:44 25,0 C 31,1 C 30,0 C 64 % 0 lf 1006,7 hPa 0,0 l/m 2 min 0 min 696 W/m 16,7 km/h (3 Bft) 100,00 %
10.07.2017 10:46 25,1 C 31,1 C 31,1 C 64 % 0 lf 1006,7 hPa 0,0 l/m 2 min 0 min 731 W/m 12,6 km/h (3 Bft) 100,00 %
10.07.2017 10:48 25,1 C 31,1 C 31,1 C 64 % 0 lf 1006,7 hPa 0,0 l/m 2 min 0 min 746 W/m 8,4 km/h (2 Bft) 95,74 %
10.07.2017 10:50 25,2 C 31,1 C 32,2 C 64 % 0 lf 1006,6 hPa 0,0 l/m 2 min 0 min 795 W/m 8,4 km/h (2 Bft) 93,62 %
10.07.2017 10:52 25,2 C 31,1 C 32,8 C 64 % 0 lf 1006,6 hPa 0,0 l/m 2 min 0 min 799 W/m 8,4 km/h (2 Bft) 93,62 %
10.07.2017 10:54 25,3 C 32,8 C 32,2 C 64 % 0 lf 1006,5 hPa 0,0 l/m 2 min 0 min 793 W/m 8,4 km/h (2 Bft) 91,30 %
10.07.2017 10:56 25,4 C 33,9 C 31,7 C 64 % 0 lf 1006,5 hPa 0,0 l/m 2 min 0 min 802 W/m 8,4 km/h (2 Bft) 93,62 %
10.07.2017 10:58 25,4 C 31,1 C 30,6 C 64 % 0 lf 1006,5 hPa 0,0 l/m 2 min 0 min 570 W/m 10,5 km/h (2 Bft) 91,49 %
10.07.2017 11:00 25,4 C 31,1 C 30,0 C 64 % 0 lf 1006,4 hPa 0,0 l/m 2 min 0 min 493 W/m 10,5 km/h (2 Bft) 93,62 %
10.07.2017 11:02 25,4 C 30,6 C 30,0 C 64 % 0 lf 1006,6 hPa 0,0 l/m 2 min 0 min 513 W/m 12,6 km/h (3 Bft) 95,74 %
10.07.2017 11:04 25,5 C 30,0 C 29,4 C 64 % 0 lf 1006,7 hPa 0,0 l/m 2 min 0 min 489 W/m 12,6 km/h (3 Bft) 91,49 %
10.07.2017 11:06 25,5 C 30,6 C 29,4 C 64 % 0 lf 1006,7 hPa 0,0 l/m 2 min 0 min 473 W/m 10,5 km/h (2 Bft) 93,48 %
10.07.2017 11:08 25,5 C 31,7 C 30,0 C 64 % 0 lf 1006,6 hPa 0,0 l/m 2 min 0 min 513 W/m 8,4 km/h (2 Bft) 91,49 %
10.07.2017 11:10 25,6 C 32,8 C 30,6 C 64 % 0 lf 1006,7 hPa 0,0 l/m 2 min 0 min 651 W/m 10,5 km/h (2 Bft) 93,62 %
10.07.2017 11:12 25,7 C 32,8 C 31,1 C 63 % 0 lf 1006,7 hPa 0,0 l/m 2 min 0 min 621 W/m 18,8 km/h (3 Bft) 91,49 %
10.07.2017 11:14 25,7 C 32,8 C 31,7 C 63 % 0 lf 1006,6 hPa 0,0 l/m 2 min 0 min 661 W/m 14,6 km/h (3 Bft) 93,62 %
10.07.2017 11:16 25,8 C 33,3 C 31,1 C 62 % 0 lf 1006,6 hPa 0,0 l/m 2 min 0 min 691 W/m 10,5 km/h (2 Bft) 93,48 %
10.07.2017 11:18 25,9 C 33,9 C 31,1 C 62 % 0 lf 1006,7 hPa 0,0 l/m 2 min 0 min 691 W/m 14,6 km/h (3 Bft) 93,62 %
10.07.2017 11:20 25,9 C 32,8 C 30,6 C 61 % 0 lf 1006,6 hPa 0,0 l/m 2 min 0 min 668 W/m 12,6 km/h (3 Bft) 89,36 %
10.07.2017 11:22 26,0 C 32,8 C 30,6 C 61 % 0 lf 1006,6 hPa 0,0 l/m 2 min 0 min 621 W/m 16,7 km/h (3 Bft) 89,36 %
10.07.2017 11:24 26,0 C 32,8 C 30,6 C 60 % 0 lf 1006,6 hPa 0,0 l/m 2 min 0 min 627 W/m 12,6 km/h (3 Bft) 95,74 %
10.07.2017 11:26 26,1 C 32,2 C 30,6 C 60 % 0 lf 1006,6 hPa 0,0 l/m 2 min 0 min 619 W/m 10,5 km/h (2 Bft) 93,62 %
10.07.2017 11:28 26,1 C 31,7 C 30,0 C 61 % 0 lf 1006,6 hPa 0,0 l/m 2 min 0 min 540 W/m 12,6 km/h (3 Bft) 95,65 %
10.07.2017 11:30 26,1 C 31,1 C 29,4 C 61 % 0 lf 1006,6 hPa 0,0 l/m 2 min 0 min 415 W/m 12,6 km/h (3 Bft) 93,62 %
10.07.2017 11:32 26,1 C 31,7 C 30,0 C 61 % 0 lf 1006,7 hPa 0,0 l/m 2 min 0 min 482 W/m 6,3 km/h (2 Bft) 91,49 %
10.07.2017 11:34 26,1 C 32,2 C 30,0 C 60 % 0 lf 1006,8 hPa 0,0 l/m 2 min 0 min 694 W/m 12,6 km/h (3 Bft) 95,74 %
10.07.2017 11:36 26,1 C 32,2 C 29,4 C 61 % 0 lf 1006,7 hPa 0,0 l/m 2 min 0 min 845 W/m 12,6 km/h (3 Bft) 93,62 %
10.07.2017 11:38 26,2 C 33,9 C 30,6 C 61 % 0 lf 1006,7 hPa 0,0 l/m 2 min 0 min 846 W/m 14,6 km/h (3 Bft) 93,62 %
10.07.2017 11:40 26,3 C 35,0 C 31,1 C 62 % 0 lf 1006,8 hPa 0,0 l/m 2 min 0 min 831 W/m 12,6 km/h (3 Bft) 95,65 %
10.07.2017 11:42 26,4 C 36,1 C 32,2 C 61 % 0 lf 1006,8 hPa 0,0 l/m 2 min 0 min 835 W/m 16,7 km/h (3 Bft) 93,62 %
10.07.2017 11:44 26,4 C 35,6 C 32,2 C 61 % 0 lf 1006,8 hPa 0,0 l/m 2 min 0 min 704 W/m 16,7 km/h (3 Bft) 95,74 %
10.07.2017 11:46 26,5 C 35,0 C 33,3 C 61 % 0 lf 1006,8 hPa 0,0 l/m 2 min 0 min 719 W/m 18,8 km/h (3 Bft) 93,62 %
10.07.2017 11:48 26,6 C 32,2 C 32,8 C 61 % 0 lf 1006,8 hPa 0,0 l/m 2 min 0 min 654 W/m 14,6 km/h (3 Bft) 93,62 %
10.07.2017 11:50 26,6 C 32,8 C 32,8 C 60 % 0 lf 1006,8 hPa 0,0 l/m 2 min 0 min 697 W/m 12,6 km/h (3 Bft) 93,62 %
10.07.2017 11:52 26,7 C 33,9 C 33,3 C 59 % 0 lf 1006,8 hPa 0,0 l/m 2 min 0 min 846 W/m 14,6 km/h (3 Bft) 97,83 %
10.07.2017 11:54 26,7 C 33,9 C 32,8 C 58 % 0 lf 1006,8 hPa 0,0 l/m 2 min 0 min 620 W/m 14,6 km/h (3 Bft) 95,74 %
10.07.2017 11:56 26,8 C 35,6 C 33,3 C 58 % 0 lf 1006,8 hPa 0,0 l/m 2 min 0 min 541 W/m 14,6 km/h (3 Bft) 97,87 %
10.07.2017 11:58 26,9 C 36,1 C 33,3 C 56 % 0 lf 1006,9 hPa 0,0 l/m 2 min 0 min 492 W/m 16,7 km/h (3 Bft) 95,74 %
10.07.2017 12:00 27,0 C 36,1 C 34,4 C 56 % 0 lf 1006,8 hPa 0,0 l/m 2 min 0 min 533 W/m 14,6 km/h (3 Bft) 95,74 %
10.07.2017 12:02 27,1 C 35,6 C 34,4 C 55 % 0 lf 1006,8 hPa 0,0 l/m 2 min 0 min 633 W/m 10,5 km/h (2 Bft) 93,62 %
10.07.2017 12:04 27,2 C 35,6 C 34,4 C 56 % 0 lf 1006,8 hPa 0,0 l/m 2 min 0 min 631 W/m 6,3 km/h (2 Bft) 97,83 %
10.07.2017 12:06 27,2 C 34,4 C 33,3 C 56 % 0 lf 1006,7 hPa 0,0 l/m 2 min 0 min 609 W/m 14,6 km/h (3 Bft) 97,87 %
10.07.2017 12:10 27,2 C 32,2 C 31,7 C 56 % 0 lf 1006,7 hPa 0,0 l/m 4 min 0 min 631 W/m 16,7 km/h (3 Bft) 96,84 %
10.07.2017 12:12 27,2 C 32,2 C 31,7 C 56 % 0 lf 1006,8 hPa 0,0 l/m 2 min 0 min 643 W/m 10,5 km/h (2 Bft) 95,74 %
10.07.2017 12:14 27,2 C 31,7 C 32,2 C 57 % 0 lf 1006,7 hPa 0,0 l/m 2 min 0 min 561 W/m 12,6 km/h (3 Bft) 95,74 %
10.07.2017 12:16 27,2 C 32,8 C 31,7 C 57 % 0 lf 1006,7 hPa 0,0 l/m 2 min 0 min 528 W/m 14,6 km/h (3 Bft) 95,65 %
10.07.2017 12:18 27,1 C 32,8 C 31,7 C 55 % 0 lf 1006,8 hPa 0,0 l/m 2 min 0 min 519 W/m 14,6 km/h (3 Bft) 97,87 %
10.07.2017 12:20 27,1 C 32,2 C 31,1 C 53 % 0 lf 1006,7 hPa 0,0 l/m 2 min 0 min 414 W/m 16,7 km/h (3 Bft) 97,87 %
10.07.2017 12:22 27,1 C 30,6 C 30,6 C 54 % 0 lf 1006,7 hPa 0,0 l/m 0 min 0 min 394 W/m 8,4 km/h (2 Bft) 95,74 %
10.07.2017 12:24 27,0 C 30,6 C 30,6 C 55 % 0 lf 1006,6 hPa 0,0 l/m 2 min 0 min 425 W/m 10,5 km/h (2 Bft) 100,00 %
10.07.2017 12:26 27,0 C 31,7 C 32,2 C 55 % 0 lf 1006,7 hPa 0,0 l/m 2 min 0 min 555 W/m 14,6 km/h (3 Bft) 95,65 %
10.07.2017 12:28 27,1 C 35,0 C 33,9 C 57 % 0 lf 1006,7 hPa 0,0 l/m 2 min 0 min 918 W/m 14,6 km/h (3 Bft) 95,74 %
10.07.2017 12:30 27,2 C 34,4 C 33,3 C 56 % 0 lf 1006,7 hPa 0,0 l/m 2 min 0 min 971 W/m 16,7 km/h (3 Bft) 97,87 %
10.07.2017 12:32 27,2 C 33,9 C 32,8 C 55 % 0 lf 1006,7 hPa 0,0 l/m 2 min 0 min 591 W/m 18,8 km/h (3 Bft) 97,87 %
10.07.2017 12:34 27,2 C 32,8 C 32,2 C 55 % 0 lf 1006,7 hPa 0,0 l/m 2 min 0 min 595 W/m 20,9 km/h (4 Bft) 100,00 %
10.07.2017 12:36 27,2 C 32,8 C 31,7 C 55 % 0 lf 1006,8 hPa 0,0 l/m 2 min 0 min 645 W/m 18,8 km/h (3 Bft) 97,87 %
10.07.2017 12:38 27,2 C 32,8 C 31,7 C 55 % 0 lf 1006,7 hPa 0,0 l/m 2 min 0 min 575 W/m 12,6 km/h (3 Bft) 100,00 %
10.07.2017 12:40 27,2 C 32,2 C 31,1 C 56 % 0 lf 1006,6 hPa 0,0 l/m 2 min 0 min 549 W/m 12,6 km/h (3 Bft) 95,74 %
10.07.2017 12:42 27,2 C 30,6 C 30,0 C 55 % 0 lf 1006,6 hPa 0,0 l/m 2 min 0 min 466 W/m 16,7 km/h (3 Bft) 100,00 %
10.07.2017 12:44 27,1 C 29,4 C 29,4 C 55 % 0 lf 1006,6 hPa 0,0 l/m 0 min 0 min 396 W/m 18,8 km/h (3 Bft) 100,00 %
10.07.2017 12:46 27,0 C 30,0 C 29,4 C 55 % 0 lf 1006,6 hPa 0,0 l/m 2 min 0 min 455 W/m 14,6 km/h (3 Bft) 97,87 %
10.07.2017 12:48 27,0 C 31,1 C 30,0 C 57 % 0 lf 1006,6 hPa 0,0 l/m 2 min 0 min 506 W/m 12,6 km/h (3 Bft) 100,00 %
10.07.2017 12:50 27,0 C 30,6 C 30,0 C 56 % 0 lf 1006,6 hPa 0,0 l/m 2 min 0 min 535 W/m 10,5 km/h (2 Bft) 97,83 %
10.07.2017 12:52 26,9 C 30,6 C 30,0 C 56 % 0 lf 1006,5 hPa 0,0 l/m 2 min 0 min 512 W/m 14,6 km/h (3 Bft) 97,87 %
10.07.2017 12:54 26,9 C 31,1 C 30,0 C 57 % 0 lf 1006,6 hPa 0,0 l/m 2 min 0 min 491 W/m 16,7 km/h (3 Bft) 97,87 %
10.07.2017 12:56 26,9 C 31,1 C 30,6 C 57 % 0 lf 1006,5 hPa 0,0 l/m 2 min 0 min 535 W/m 14,6 km/h (3 Bft) 95,74 %
10.07.2017 12:58 26,9 C 32,8 C 30,0 C 56 % 0 lf 1006,6 hPa 0,0 l/m 2 min 0 min 576 W/m 16,7 km/h (3 Bft) 97,87 %
10.07.2017 13:00 26,9 C 35,0 C 31,1 C 56 % 0 lf 1006,6 hPa 0,0 l/m 2 min 0 min 1013 W/m 12,6 km/h (3 Bft) 97,87 %
10.07.2017 13:02 27,1 C 35,6 C 31,1 C 54 % 0 lf 1006,5 hPa 0,0 l/m 2 min 0 min 927 W/m 18,8 km/h (3 Bft) 97,83 %
10.07.2017 13:04 27,1 C 34,4 C 30,6 C 53 % 0 lf 1006,6 hPa 0,0 l/m 2 min 0 min 650 W/m 20,9 km/h (4 Bft) 97,87 %
10.07.2017 13:06 27,2 C 33,9 C 31,1 C 55 % 0 lf 1006,5 hPa 0,0 l/m 2 min 0 min 541 W/m 16,7 km/h (3 Bft) 93,62 %
10.07.2017 13:08 27,2 C 33,3 C 31,1 C 53 % 0 lf 1006,7 hPa 0,0 l/m 2 min 0 min 612 W/m 25,1 km/h (4 Bft) 97,87 %
10.07.2017 13:10 27,2 C 33,3 C 32,2 C 53 % 0 lf 1006,7 hPa 0,0 l/m 2 min 0 min 802 W/m 18,8 km/h (3 Bft) 95,74 %
10.07.2017 13:12 27,2 C 35,0 C 32,2 C 53 % 0 lf 1006,6 hPa 0,0 l/m 2 min 0 min 951 W/m 12,6 km/h (3 Bft) 93,62 %
10.07.2017 13:14 27,3 C 35,6 C 33,3 C 55 % 0 lf 1006,6 hPa 0,0 l/m 2 min 0 min 957 W/m 18,8 km/h (3 Bft) 93,48 %
10.07.2017 13:16 27,4 C 35,0 C 33,9 C 53 % 0 lf 1006,5 hPa 0,0 l/m 2 min 0 min 945 W/m 18,8 km/h (3 Bft) 95,74 %
10.07.2017 13:18 27,4 C 36,1 C 33,3 C 54 % 0 lf 1006,5 hPa 0,0 l/m 2 min 0 min 946 W/m 12,6 km/h (3 Bft) 97,87 %
10.07.2017 13:20 27,6 C 36,7 C 32,2 C 54 % 0 lf 1006,4 hPa 0,0 l/m 2 min 0 min 908 W/m 10,5 km/h (2 Bft) 97,87 %
10.07.2017 13:22 27,7 C 36,1 C 31,1 C 54 % 0 lf 1006,4 hPa 0,0 l/m 2 min 0 min 902 W/m 18,8 km/h (3 Bft) 93,62 %
10.07.2017 13:24 27,8 C 37,2 C 31,1 C 55 % 0 lf 1006,4 hPa 0,0 l/m 2 min 0 min 908 W/m 16,7 km/h (3 Bft) 97,87 %
10.07.2017 13:26 27,9 C 35,6 C 31,1 C 54 % 0 lf 1006,4 hPa 0,0 l/m 2 min 0 min 914 W/m 10,5 km/h (2 Bft) 97,83 %
10.07.2017 13:28 28,1 C 36,1 C 31,1 C 54 % 0 lf 1006,3 hPa 0,0 l/m 2 min 0 min 919 W/m 10,5 km/h (2 Bft) 97,87 %
10.07.2017 13:30 28,2 C 36,7 C 30,6 C 53 % 0 lf 1006,3 hPa 0,0 l/m 2 min 0 min 899 W/m 16,7 km/h (3 Bft) 97,87 %
10.07.2017 13:32 28,3 C 36,7 C 31,1 C 52 % 0 lf 1006,3 hPa 0,0 l/m 2 min 0 min 887 W/m 20,9 km/h (4 Bft) 97,87 %
10.07.2017 13:34 28,4 C 37,2 C 30,6 C 52 % 0 lf 1006,3 hPa 0,0 l/m 2 min 0 min 886 W/m 16,7 km/h (3 Bft) 95,74 %
10.07.2017 13:36 28,4 C 36,1 C 30,6 C 51 % 0 lf 1006,2 hPa 0,0 l/m 2 min 0 min 878 W/m 20,9 km/h (4 Bft) 97,83 %
10.07.2017 13:38 28,4 C 34,4 C 30,0 C 51 % 0 lf 1006,2 hPa 0,0 l/m 2 min 0 min 885 W/m 12,6 km/h (3 Bft) 97,87 %
10.07.2017 13:40 28,5 C 35,0 C 30,6 C 51 % 0 lf 1006,2 hPa 0,0 l/m 2 min 0 min 887 W/m 14,6 km/h (3 Bft) 95,74 %
10.07.2017 13:42 28,6 C 36,1 C 30,6 C 51 % 0 lf 1006,2 hPa 0,0 l/m 2 min 0 min 888 W/m 14,6 km/h (3 Bft) 97,87 %
10.07.2017 13:44 28,7 C 35,0 C 30,6 C 50 % 0 lf 1006,2 hPa 0,0 l/m 2 min 0 min 891 W/m 14,6 km/h (3 Bft) 97,87 %
10.07.2017 13:46 28,7 C 36,1 C 30,0 C 49 % 0 lf 1006,2 hPa 0,0 l/m 2 min 0 min 887 W/m 16,7 km/h (3 Bft) 97,87 %
10.07.2017 13:48 28,7 C 35,0 C 30,0 C 49 % 0 lf 1006,2 hPa 0,0 l/m 2 min 0 min 891 W/m 29,3 km/h (5 Bft) 97,83 %
10.07.2017 13:50 28,7 C 36,7 C 30,0 C 48 % 0 lf 1006,3 hPa 0,0 l/m 2 min 0 min 863 W/m 12,6 km/h (3 Bft) 97,87 %
10.07.2017 13:52 28,7 C 35,0 C 30,0 C 48 % 0 lf 1006,2 hPa 0,0 l/m 2 min 0 min 885 W/m 20,9 km/h (4 Bft) 97,87 %
10.07.2017 13:54 28,8 C 35,6 C 30,6 C 48 % 0 lf 1006,2 hPa 0,0 l/m 2 min 0 min 880 W/m 18,8 km/h (3 Bft) 97,87 %
10.07.2017 13:56 28,8 C 35,6 C 30,6 C 47 % 0 lf 1006,2 hPa 0,0 l/m 2 min 0 min 874 W/m 25,1 km/h (4 Bft) 95,74 %
10.07.2017 13:58 28,8 C 34,4 C 30,6 C 47 % 0 lf 1006,2 hPa 0,0 l/m 2 min 0 min 870 W/m 23,0 km/h (4 Bft) 97,87 %
10.07.2017 14:00 28,8 C 35,0 C 30,6 C 47 % 0 lf 1006,2 hPa 0,0 l/m 2 min 0 min 882 W/m 18,8 km/h (3 Bft) 95,65 %
10.07.2017 14:02 28,8 C 35,0 C 30,6 C 46 % 0 lf 1006,2 hPa 0,0 l/m 2 min 0 min 879 W/m 14,6 km/h (3 Bft) 95,74 %
10.07.2017 14:04 28,9 C 35,6 C 30,6 C 47 % 0 lf 1006,2 hPa 0,0 l/m 2 min 0 min 874 W/m 31,4 km/h (5 Bft) 95,74 %
10.07.2017 14:06 28,9 C 35,0 C 30,6 C 46 % 0 lf 1006,2 hPa 0,0 l/m 2 min 0 min 883 W/m 29,3 km/h (5 Bft) 97,87 %
10.07.2017 14:08 28,9 C 35,6 C 32,2 C 47 % 0 lf 1006,2 hPa 0,0 l/m 2 min 0 min 881 W/m 16,7 km/h (3 Bft) 97,87 %
10.07.2017 14:10 28,9 C 36,1 C 33,3 C 44 % 0 lf 1006,1 hPa 0,0 l/m 2 min 0 min 888 W/m 16,7 km/h (3 Bft) 97,87 %
10.07.2017 14:12 28,9 C 35,0 C 35,0 C 44 % 0 lf 1006,1 hPa 0,0 l/m 2 min 0 min 878 W/m 18,8 km/h (3 Bft) 100,00 %
10.07.2017 14:14 28,9 C 33,9 C 35,6 C 44 % 0 lf 1006,0 hPa 0,0 l/m 2 min 0 min 880 W/m 20,9 km/h (4 Bft) 100,00 %
10.07.2017 14:16 29,0 C 35,0 C 36,1 C 44 % 0 lf 1006,2 hPa 0,0 l/m 2 min 0 min 882 W/m 18,8 km/h (3 Bft) 97,87 %
10.07.2017 14:18 29,1 C 35,6 C 36,7 C 44 % 0 lf 1006,2 hPa 0,0 l/m 2 min 0 min 881 W/m 23,0 km/h (4 Bft) 97,87 %
10.07.2017 14:20 29,1 C 35,6 C 37,2 C 44 % 0 lf 1006,2 hPa 0,0 l/m 2 min 0 min 884 W/m 16,7 km/h (3 Bft) 97,87 %
10.07.2017 14:22 29,1 C 33,9 C 36,7 C 43 % 0 lf 1006,1 hPa 0,0 l/m 2 min 0 min 856 W/m 16,7 km/h (3 Bft) 95,74 %
10.07.2017 14:24 29,2 C 35,0 C 37,2 C 45 % 0 lf 1006,1 hPa 0,0 l/m 2 min 0 min 825 W/m 18,8 km/h (3 Bft) 97,83 %
10.07.2017 14:26 29,3 C 35,0 C 37,8 C 44 % 0 lf 1006,0 hPa 0,0 l/m 2 min 0 min 843 W/m 20,9 km/h (4 Bft) 96,00 %
10.07.2017 14:28 29,3 C 35,0 C 37,8 C 43 % 0 lf 1006,1 hPa 0,0 l/m 2 min 0 min 885 W/m 18,8 km/h (3 Bft) 97,87 %
10.07.2017 14:30 29,3 C 35,0 C 37,8 C 43 % 0 lf 1006,1 hPa 0,0 l/m 2 min 0 min 891 W/m 18,8 km/h (3 Bft) 97,83 %
10.07.2017 14:32 29,3 C 33,9 C 37,8 C 44 % 0 lf 1006,1 hPa 0,0 l/m 2 min 0 min 888 W/m 23,0 km/h (4 Bft) 93,62 %
10.07.2017 14:34 29,3 C 33,3 C 38,3 C 44 % 0 lf 1006,1 hPa 0,0 l/m 2 min 0 min 887 W/m 20,9 km/h (4 Bft) 93,62 %
10.07.2017 14:37 29,4 C 34,4 C 38,3 C 43 % 0 lf 1006,0 hPa 0,0 l/m 3 min 0 min 879 W/m 25,1 km/h (4 Bft) 97,14 %
10.07.2017 14:38 29,4 C 35,0 C 38,9 C 45 % 0 lf 1006,0 hPa 0,0 l/m 1 min 0 min 862 W/m 16,7 km/h (3 Bft) 100,00 %
10.07.2017 14:40 29,4 C 35,0 C 38,9 C 44 % 0 lf 1006,0 hPa 0,0 l/m 2 min 0 min 860 W/m 14,6 km/h (3 Bft) 97,87 %
10.07.2017 14:42 29,5 C 35,6 C 39,4 C 45 % 0 lf 1006,0 hPa 0,0 l/m 2 min 0 min 862 W/m 10,5 km/h (2 Bft) 95,65 %
10.07.2017 14:44 29,6 C 35,0 C 39,4 C 43 % 0 lf 1006,0 hPa 0,0 l/m 2 min 0 min 864 W/m 18,8 km/h (3 Bft) 93,62 %
10.07.2017 14:46 29,6 C 34,4 C 38,9 C 43 % 0 lf 1006,0 hPa 0,0 l/m 2 min 0 min 871 W/m 18,8 km/h (3 Bft) 93,62 %
10.07.2017 14:48 29,6 C 34,4 C 38,9 C 43 % 0 lf 1006,1 hPa 0,0 l/m 2 min 0 min 867 W/m 23,0 km/h (4 Bft) 91,49 %
10.07.2017 14:50 29,6 C 33,9 C 38,9 C 41 % 0 lf 1006,0 hPa 0,0 l/m 2 min 0 min 870 W/m 27,2 km/h (4 Bft) 91,49 %
10.07.2017 14:52 29,6 C 33,3 C 38,3 C 41 % 0 lf 1006,1 hPa 0,0 l/m 2 min 0 min 862 W/m 29,3 km/h (5 Bft) 93,62 %
10.07.2017 14:54 29,5 C 33,3 C 37,8 C 43 % 0 lf 1006,1 hPa 0,0 l/m 2 min 0 min 864 W/m 23,0 km/h (4 Bft) 91,30 %
10.07.2017 14:55 29,4 C 33,9 C 38,3 C 43 % 0 lf 1006,1 hPa 0,0 l/m 1 min 0 min 858 W/m 29,3 km/h (5 Bft) 92,98 %
10.07.2017 14:58 29,4 C 33,9 C 37,8 C 44 % 0 lf 1006,0 hPa 0,0 l/m 3 min 0 min 845 W/m 16,7 km/h (3 Bft) 93,02 %
10.07.2017 15:00 29,4 C 33,9 C 37,8 C 43 % 0 lf 1006,0 hPa 0,0 l/m 2 min 0 min 844 W/m 25,1 km/h (4 Bft) 92,16 %
10.07.2017 15:02 29,4 C 35,0 C 38,9 C 46 % 0 lf 1005,9 hPa 0,0 l/m 2 min 0 min 847 W/m 23,0 km/h (4 Bft) 91,49 %
10.07.2017 15:04 29,5 C 35,6 C 39,4 C 45 % 0 lf 1005,9 hPa 0,0 l/m 2 min 0 min 857 W/m 20,9 km/h (4 Bft) 95,74 %
10.07.2017 15:06 29,6 C 35,0 C 39,4 C 43 % 0 lf 1005,9 hPa 0,0 l/m 2 min 0 min 821 W/m 27,2 km/h (4 Bft) 93,48 %
10.07.2017 15:08 29,6 C 34,4 C 39,4 C 44 % 0 lf 1005,9 hPa 0,0 l/m 2 min 0 min 817 W/m 27,2 km/h (4 Bft) 93,62 %
10.07.2017 15:10 29,6 C 34,4 C 38,9 C 43 % 0 lf 1005,9 hPa 0,0 l/m 2 min 0 min 787 W/m 14,6 km/h (3 Bft) 93,62 %
10.07.2017 15:12 29,6 C 34,4 C 38,3 C 43 % 0 lf 1005,8 hPa 0,0 l/m 2 min 0 min 743 W/m 29,3 km/h (5 Bft) 93,62 %
10.07.2017 15:14 29,6 C 34,4 C 38,3 C 43 % 0 lf 1005,9 hPa 0,0 l/m 2 min 0 min 809 W/m 27,2 km/h (4 Bft) 95,74 %
10.07.2017 15:16 29,6 C 33,9 C 37,2 C 43 % 0 lf 1005,9 hPa 0,0 l/m 2 min 0 min 802 W/m 12,6 km/h (3 Bft) 95,65 %
10.07.2017 15:18 29,6 C 33,3 C 36,7 C 43 % 0 lf 1005,9 hPa 0,0 l/m 2 min 0 min 714 W/m 12,6 km/h (3 Bft) 95,74 %
10.07.2017 15:20 29,6 C 32,8 C 35,6 C 44 % 0 lf 1006,1 hPa 0,0 l/m 2 min 0 min 592 W/m 20,9 km/h (4 Bft) 93,62 %
10.07.2017 15:22 29,5 C 32,2 C 34,4 C 43 % 0 lf 1006,1 hPa 0,0 l/m 2 min 0 min 592 W/m 16,7 km/h (3 Bft) 93,62 %
10.07.2017 15:24 29,4 C 32,8 C 34,4 C 44 % 0 lf 1006,0 hPa 0,0 l/m 2 min 0 min 600 W/m 29,3 km/h (5 Bft) 93,62 %
10.07.2017 15:26 29,3 C 31,7 C 33,9 C 44 % 0 lf 1006,1 hPa 0,0 l/m 2 min 0 min 513 W/m 27,2 km/h (4 Bft) 95,74 %
10.07.2017 15:28 29,3 C 32,2 C 33,9 C 45 % 0 lf 1006,1 hPa 0,0 l/m 0 min 0 min 385 W/m 20,9 km/h (4 Bft) 97,87 %
10.07.2017 15:30 29,2 C 32,8 C 35,0 C 46 % 0 lf 1006,1 hPa 0,0 l/m 2 min 0 min 714 W/m 16,7 km/h (3 Bft) 97,83 %
10.07.2017 15:32 29,2 C 32,2 C 35,0 C 45 % 0 lf 1006,0 hPa 0,0 l/m 2 min 0 min 704 W/m 18,8 km/h (3 Bft) 100,00 %
10.07.2017 15:34 29,2 C 31,7 C 34,4 C 45 % 0 lf 1006,0 hPa 0,0 l/m 2 min 0 min 527 W/m 14,6 km/h (3 Bft) 100,00 %
10.07.2017 15:36 29,1 C 32,2 C 34,4 C 46 % 0 lf 1006,0 hPa 0,0 l/m 2 min 0 min 502 W/m 23,0 km/h (4 Bft) 95,74 %
10.07.2017 15:38 29,1 C 32,2 C 35,0 C 47 % 0 lf 1006,0 hPa 0,0 l/m 2 min 0 min 582 W/m 16,7 km/h (3 Bft) 97,87 %
10.07.2017 15:40 29,1 C 33,3 C 37,2 C 47 % 0 lf 1006,1 hPa 0,0 l/m 2 min 0 min 767 W/m 16,7 km/h (3 Bft) 100,00 %
10.07.2017 15:42 29,1 C 33,9 C 37,2 C 46 % 0 lf 1006,1 hPa 0,0 l/m 2 min 0 min 827 W/m 20,9 km/h (4 Bft) 97,87 %
10.07.2017 15:44 29,1 C 33,9 C 36,7 C 46 % 0 lf 1006,1 hPa 0,0 l/m 2 min 0 min 858 W/m 16,7 km/h (3 Bft) 100,00 %
10.07.2017 15:46 29,1 C 33,9 C 37,2 C 46 % 0 lf 1006,0 hPa 0,0 l/m 2 min 0 min 898 W/m 16,7 km/h (3 Bft) 97,87 %
10.07.2017 15:48 29,1 C 33,3 C 37,2 C 47 % 0 lf 1006,0 hPa 0,0 l/m 2 min 0 min 844 W/m 12,6 km/h (3 Bft) 97,87 %
10.07.2017 15:50 29,2 C 33,9 C 37,2 C 47 % 0 lf 1006,0 hPa 0,0 l/m 2 min 0 min 799 W/m 20,9 km/h (4 Bft) 100,00 %
10.07.2017 15:52 29,2 C 33,3 C 36,1 C 47 % 0 lf 1006,0 hPa 0,0 l/m 2 min 0 min 683 W/m 16,7 km/h (3 Bft) 100,00 %
10.07.2017 15:54 29,2 C 32,8 C 34,4 C 47 % 0 lf 1006,0 hPa 0,0 l/m 2 min 0 min 476 W/m 16,7 km/h (3 Bft) 95,74 %
10.07.2017 15:56 29,2 C 32,8 C 35,6 C 48 % 0 lf 1006,0 hPa 0,0 l/m 2 min 0 min 418 W/m 14,6 km/h (3 Bft) 97,87 %
10.07.2017 15:58 29,3 C 33,9 C 37,8 C 47 % 0 lf 1006,0 hPa 0,0 l/m 2 min 0 min 431 W/m 18,8 km/h (3 Bft) 97,87 %
10.07.2017 16:00 29,3 C 34,4 C 37,8 C 48 % 0 lf 1006,0 hPa 0,0 l/m 2 min 0 min 431 W/m 20,9 km/h (4 Bft) 97,87 %
10.07.2017 16:02 29,4 C 33,3 C 36,1 C 47 % 0 lf 1006,0 hPa 0,0 l/m 2 min 0 min 426 W/m 20,9 km/h (4 Bft) 100,00 %
10.07.2017 16:04 29,4 C 32,2 C 33,9 C 46 % 0 lf 1006,0 hPa 0,0 l/m 0 min 0 min 331 W/m 20,9 km/h (4 Bft) 100,00 %
10.07.2017 16:06 29,4 C 31,7 C 33,3 C 46 % 0 lf 1006,0 hPa 0,0 l/m 0 min 0 min 356 W/m 16,7 km/h (3 Bft) 100,00 %
10.07.2017 16:08 29,4 C 31,7 C 34,4 C 46 % 0 lf 1006,0 hPa 0,0 l/m 2 min 0 min 415 W/m 27,2 km/h (4 Bft) 97,87 %
10.07.2017 16:10 29,4 C 32,2 C 35,6 C 46 % 0 lf 1006,0 hPa 0,0 l/m 2 min 0 min 654 W/m 20,9 km/h (4 Bft) 100,00 %
10.07.2017 16:12 29,3 C 31,7 C 33,9 C 46 % 0 lf 1006,0 hPa 0,0 l/m 2 min 0 min 696 W/m 25,1 km/h (4 Bft) 100,00 %
10.07.2017 16:14 29,2 C 31,1 C 33,3 C 47 % 0 lf 1006,0 hPa 0,0 l/m 2 min 0 min 494 W/m 18,8 km/h (3 Bft) 95,74 %
10.07.2017 16:16 29,2 C 31,7 C 33,3 C 47 % 0 lf 1006,0 hPa 0,0 l/m 2 min 0 min 606 W/m 12,6 km/h (3 Bft) 95,65 %
10.07.2017 16:18 29,1 C 32,2 C 35,6 C 48 % 0 lf 1006,0 hPa 0,0 l/m 2 min 0 min 728 W/m 14,6 km/h (3 Bft) 97,87 %
10.07.2017 16:20 29,1 C 32,2 C 35,0 C 47 % 0 lf 1006,0 hPa 0,0 l/m 2 min 0 min 777 W/m 18,8 km/h (3 Bft) 93,62 %
10.07.2017 16:22 29,1 C 31,1 C 33,3 C 47 % 0 lf 1006,0 hPa 0,0 l/m 2 min 0 min 454 W/m 23,0 km/h (4 Bft) 97,87 %
10.07.2017 16:24 29,0 C 31,1 C 33,3 C 47 % 0 lf 1006,1 hPa 0,0 l/m 2 min 0 min 410 W/m 20,9 km/h (4 Bft) 97,87 %
10.07.2017 16:26 28,9 C 30,6 C 32,8 C 47 % 0 lf 1006,1 hPa 0,0 l/m 2 min 0 min 410 W/m 23,0 km/h (4 Bft) 97,87 %
10.07.2017 16:28 28,9 C 30,6 C 32,2 C 46 % 0 lf 1006,1 hPa 0,0 l/m 2 min 0 min 416 W/m 27,2 km/h (4 Bft) 95,65 %
10.07.2017 16:30 28,8 C 30,6 C 32,8 C 46 % 0 lf 1006,1 hPa 0,0 l/m 2 min 0 min 513 W/m 23,0 km/h (4 Bft) 95,74 %
10.07.2017 16:32 28,8 C 31,1 C 34,4 C 46 % 0 lf 1006,0 hPa 0,0 l/m 2 min 0 min 559 W/m 14,6 km/h (3 Bft) 95,74 %
10.07.2017 16:34 28,9 C 31,1 C 33,9 C 46 % 0 lf 1005,9 hPa 0,0 l/m 2 min 0 min 559 W/m 18,8 km/h (3 Bft) 95,74 %
10.07.2017 16:36 28,8 C 30,6 C 33,3 C 45 % 0 lf 1005,9 hPa 0,0 l/m 2 min 0 min 371 W/m 20,9 km/h (4 Bft) 97,87 %
10.07.2017 16:38 28,8 C 30,6 C 32,8 C 46 % 0 lf 1005,9 hPa 0,0 l/m 2 min 0 min 349 W/m 18,8 km/h (3 Bft) 91,49 %
10.07.2017 16:40 28,8 C 30,0 C 32,2 C 46 % 0 lf 1006,0 hPa 0,0 l/m 2 min 0 min 344 W/m 20,9 km/h (4 Bft) 95,65 %
10.07.2017 16:42 28,8 C 30,0 C 32,2 C 45 % 0 lf 1005,9 hPa 0,0 l/m 2 min 0 min 388 W/m 25,1 km/h (4 Bft) 93,62 %
10.07.2017 16:44 28,8 C 30,6 C 32,8 C 45 % 0 lf 1006,0 hPa 0,0 l/m 2 min 0 min 433 W/m 23,0 km/h (4 Bft) 95,74 %
10.07.2017 16:46 28,8 C 30,6 C 32,2 C 45 % 0 lf 1006,0 hPa 0,0 l/m 2 min 0 min 471 W/m 20,9 km/h (4 Bft) 95,74 %
10.07.2017 16:48 28,8 C 30,0 C 31,7 C 45 % 0 lf 1005,9 hPa 0,0 l/m 2 min 0 min 334 W/m 16,7 km/h (3 Bft) 95,74 %
10.07.2017 16:50 28,8 C 30,6 C 31,1 C 44 % 0 lf 1005,9 hPa 0,0 l/m 0 min 0 min 314 W/m 14,6 km/h (3 Bft) 93,62 %
10.07.2017 16:52 28,7 C 30,0 C 30,6 C 44 % 0 lf 1005,8 hPa 0,0 l/m 0 min 0 min 318 W/m 23,0 km/h (4 Bft) 95,65 %
10.07.2017 16:54 28,7 C 30,0 C 30,6 C 45 % 0 lf 1005,9 hPa 0,0 l/m 0 min 0 min 325 W/m 27,2 km/h (4 Bft) 95,74 %
10.07.2017 16:56 28,7 C 30,0 C 30,6 C 44 % 0 lf 1005,9 hPa 0,0 l/m 2 min 0 min 331 W/m 23,0 km/h (4 Bft) 93,62 %
10.07.2017 16:58 28,6 C 30,0 C 30,6 C 43 % 0 lf 1005,9 hPa 0,0 l/m 2 min 0 min 329 W/m 14,6 km/h (3 Bft) 93,62 %
10.07.2017 17:00 28,6 C 30,0 C 30,6 C 44 % 0 lf 1005,9 hPa 0,0 l/m 2 min 0 min 330 W/m 16,7 km/h (3 Bft) 93,62 %
10.07.2017 17:02 28,6 C 30,0 C 30,6 C 44 % 0 lf 1005,9 hPa 0,0 l/m 2 min 0 min 350 W/m 16,7 km/h (3 Bft) 95,65 %
10.07.2017 17:04 28,6 C 30,0 C 30,6 C 44 % 0 lf 1005,9 hPa 0,0 l/m 2 min 0 min 346 W/m 18,8 km/h (3 Bft) 95,74 %
10.07.2017 17:06 28,6 C 30,0 C 31,1 C 44 % 0 lf 1005,9 hPa 0,0 l/m 2 min 0 min 347 W/m 16,7 km/h (3 Bft) 97,87 %
10.07.2017 17:08 28,6 C 30,0 C 31,1 C 45 % 0 lf 1006,0 hPa 0,0 l/m 2 min 0 min 345 W/m 14,6 km/h (3 Bft) 97,87 %
10.07.2017 17:10 28,6 C 30,0 C 30,6 C 44 % 0 lf 1006,0 hPa 0,0 l/m 2 min 0 min 377 W/m 12,6 km/h (3 Bft) 93,62 %
10.07.2017 17:12 28,6 C 30,0 C 31,1 C 44 % 0 lf 1006,0 hPa 0,0 l/m 2 min 0 min 383 W/m 12,6 km/h (3 Bft) 95,74 %
10.07.2017 17:14 28,6 C 30,6 C 31,7 C 45 % 0 lf 1006,0 hPa 0,0 l/m 2 min 0 min 383 W/m 10,5 km/h (2 Bft) 100,00 %
10.07.2017 17:16 28,7 C 30,0 C 31,7 C 45 % 0 lf 1005,9 hPa 0,0 l/m 2 min 0 min 381 W/m 27,2 km/h (4 Bft) 97,87 %
10.07.2017 17:18 28,6 C 30,0 C 31,1 C 44 % 0 lf 1005,9 hPa 0,0 l/m 2 min 0 min 332 W/m 25,1 km/h (4 Bft) 100,00 %
10.07.2017 17:20 28,5 C 29,4 C 30,6 C 44 % 0 lf 1005,9 hPa 0,0 l/m 0 min 0 min 297 W/m 16,7 km/h (3 Bft) 100,00 %
10.07.2017 17:22 28,5 C 29,4 C 30,0 C 44 % 0 lf 1005,9 hPa 0,0 l/m 0 min 0 min 252 W/m 18,8 km/h (3 Bft) 100,00 %
10.07.2017 17:24 28,4 C 29,4 C 30,0 C 45 % 0 lf 1005,9 hPa 0,0 l/m 0 min 0 min 232 W/m 14,6 km/h (3 Bft) 100,00 %
10.07.2017 17:26 28,4 C 28,9 C 29,4 C 44 % 0 lf 1005,8 hPa 0,0 l/m 0 min 0 min 223 W/m 25,1 km/h (4 Bft) 100,00 %
10.07.2017 17:28 28,3 C 28,3 C 28,9 C 44 % 0 lf 1005,9 hPa 0,0 l/m 0 min 0 min 217 W/m 29,3 km/h (5 Bft) 100,00 %
10.07.2017 17:30 28,2 C 28,3 C 28,9 C 44 % 0 lf 1005,9 hPa 0,0 l/m 0 min 0 min 216 W/m 18,8 km/h (3 Bft) 95,74 %
10.07.2017 17:32 28,1 C 28,3 C 28,9 C 46 % 0 lf 1006,0 hPa 0,0 l/m 0 min 0 min 208 W/m 20,9 km/h (4 Bft) 97,87 %
10.07.2017 17:34 28,0 C 27,8 C 28,3 C 47 % 0 lf 1006,1 hPa 0,0 l/m 0 min 0 min 190 W/m 23,0 km/h (4 Bft) 97,87 %
10.07.2017 17:36 27,9 C 27,8 C 28,3 C 48 % 0 lf 1006,0 hPa 0,0 l/m 0 min 0 min 175 W/m 18,8 km/h (3 Bft) 100,00 %
10.07.2017 17:38 27,8 C 27,8 C 27,8 C 50 % 0 lf 1006,0 hPa 0,0 l/m 0 min 0 min 171 W/m 18,8 km/h (3 Bft) 97,83 %
10.07.2017 17:40 27,8 C 27,8 C 27,8 C 51 % 0 lf 1006,1 hPa 0,0 l/m 0 min 0 min 172 W/m 29,3 km/h (5 Bft) 97,87 %
10.07.2017 17:42 27,7 C 27,2 C 27,8 C 52 % 0 lf 1006,1 hPa 0,0 l/m 0 min 0 min 174 W/m 23,0 km/h (4 Bft) 100,00 %
10.07.2017 17:44 27,6 C 27,2 C 27,2 C 53 % 0 lf 1006,1 hPa 0,0 l/m 0 min 0 min 181 W/m 27,2 km/h (4 Bft) 95,74 %
10.07.2017 17:46 27,4 C 27,2 C 27,2 C 54 % 0 lf 1006,1 hPa 0,0 l/m 0 min 0 min 186 W/m 29,3 km/h (5 Bft) 95,74 %
10.07.2017 17:48 27,3 C 26,7 C 27,2 C 54 % 0 lf 1006,1 hPa 0,0 l/m 0 min 0 min 188 W/m 31,4 km/h (5 Bft) 95,74 %
10.07.2017 17:50 27,2 C 26,7 C 27,2 C 54 % 0 lf 1006,1 hPa 0,0 l/m 0 min 0 min 181 W/m 27,2 km/h (4 Bft) 97,83 %
10.07.2017 17:52 27,0 C 26,7 C 26,7 C 54 % 0 lf 1006,1 hPa 0,0 l/m 0 min 0 min 173 W/m 29,3 km/h (5 Bft) 97,87 %
10.07.2017 17:54 26,9 C 26,7 C 26,7 C 55 % 0 lf 1006,1 hPa 0,0 l/m 0 min 0 min 167 W/m 23,0 km/h (4 Bft) 93,62 %
10.07.2017 17:56 26,8 C 26,7 C 26,7 C 55 % 0 lf 1006,2 hPa 0,0 l/m 0 min 0 min 163 W/m 18,8 km/h (3 Bft) 91,49 %
10.07.2017 17:58 26,7 C 26,1 C 26,7 C 55 % 0 lf 1006,1 hPa 0,0 l/m 0 min 0 min 157 W/m 20,9 km/h (4 Bft) 95,74 %
10.07.2017 18:00 26,6 C 26,1 C 26,1 C 55 % 0 lf 1006,1 hPa 0,0 l/m 0 min 0 min 148 W/m 23,0 km/h (4 Bft) 95,65 %
10.07.2017 18:02 26,5 C 26,1 C 26,1 C 56 % 0 lf 1006,1 hPa 0,0 l/m 0 min 0 min 144 W/m 23,0 km/h (4 Bft) 93,62 %
10.07.2017 18:04 26,4 C 26,1 C 26,1 C 56 % 0 lf 1006,2 hPa 0,0 l/m 0 min 0 min 142 W/m 25,1 km/h (4 Bft) 95,74 %
10.07.2017 18:06 26,4 C 26,1 C 26,1 C 56 % 0 lf 1006,2 hPa 0,0 l/m 0 min 0 min 142 W/m 18,8 km/h (3 Bft) 95,74 %
10.07.2017 18:08 26,3 C 26,1 C 26,1 C 56 % 0 lf 1006,2 hPa 0,0 l/m 0 min 0 min 142 W/m 23,0 km/h (4 Bft) 95,74 %
10.07.2017 18:10 26,2 C 26,1 C 26,1 C 57 % 0 lf 1006,3 hPa 0,0 l/m 0 min 0 min 141 W/m 20,9 km/h (4 Bft) 91,49 %
10.07.2017 18:12 26,1 C 26,1 C 26,1 C 57 % 0 lf 1006,3 hPa 0,0 l/m 0 min 0 min 142 W/m 27,2 km/h (4 Bft) 95,65 %
10.07.2017 18:14 26,1 C 26,1 C 26,1 C 57 % 0 lf 1006,3 hPa 0,0 l/m 0 min 0 min 143 W/m 18,8 km/h (3 Bft) 93,62 %
10.07.2017 18:16 25,9 C 26,1 C 26,1 C 57 % 0 lf 1006,3 hPa 0,0 l/m 0 min 0 min 144 W/m 20,9 km/h (4 Bft) 93,62 %
10.07.2017 18:18 25,9 C 26,1 C 26,1 C 58 % 0 lf 1006,3 hPa 0,0 l/m 0 min 0 min 146 W/m 12,6 km/h (3 Bft) 95,74 %
10.07.2017 18:20 25,8 C 26,1 C 25,6 C 57 % 0 lf 1006,3 hPa 0,0 l/m 0 min 0 min 155 W/m 20,9 km/h (4 Bft) 93,62 %
10.07.2017 18:22 25,8 C 26,1 C 25,6 C 58 % 0 lf 1006,4 hPa 0,0 l/m 0 min 0 min 163 W/m 18,8 km/h (3 Bft) 95,74 %
10.07.2017 18:24 25,8 C 26,1 C 26,1 C 58 % 0 lf 1006,5 hPa 0,0 l/m 0 min 0 min 170 W/m 14,6 km/h (3 Bft) 95,65 %
10.07.2017 18:26 25,7 C 26,1 C 26,1 C 58 % 0 lf 1006,5 hPa 0,0 l/m 0 min 0 min 179 W/m 20,9 km/h (4 Bft) 87,23 %
10.07.2017 18:28 25,7 C 26,1 C 26,1 C 58 % 0 lf 1006,4 hPa 0,0 l/m 0 min 0 min 188 W/m 23,0 km/h (4 Bft) 93,62 %
10.07.2017 18:30 25,7 C 26,1 C 26,1 C 58 % 0 lf 1006,5 hPa 0,0 l/m 0 min 0 min 182 W/m 27,2 km/h (4 Bft) 95,74 %
10.07.2017 18:32 25,7 C 26,1 C 26,1 C 58 % 0 lf 1006,5 hPa 0,0 l/m 0 min 0 min 166 W/m 20,9 km/h (4 Bft) 95,74 %
10.07.2017 18:34 25,6 C 25,6 C 25,6 C 58 % 0 lf 1006,5 hPa 0,0 l/m 0 min 0 min 152 W/m 31,4 km/h (5 Bft) 95,74 %
10.07.2017 18:36 25,6 C 25,6 C 25,6 C 58 % 0 lf 1006,6 hPa 0,0 l/m 0 min 0 min 142 W/m 23,0 km/h (4 Bft) 95,65 %
10.07.2017 18:38 25,5 C 25,6 C 25,6 C 58 % 0 lf 1006,6 hPa 0,0 l/m 0 min 0 min 128 W/m 25,1 km/h (4 Bft) 91,49 %
10.07.2017 18:40 25,4 C 25,0 C 25,0 C 58 % 0 lf 1006,6 hPa 0,0 l/m 0 min 0 min 118 W/m 31,4 km/h (5 Bft) 93,62 %
10.07.2017 18:42 25,4 C 25,0 C 25,0 C 59 % 0 lf 1006,6 hPa 0,0 l/m 0 min 0 min 113 W/m 23,0 km/h (4 Bft) 95,74 %
10.07.2017 18:44 25,3 C 25,0 C 25,0 C 59 % 0 lf 1006,6 hPa 0,0 l/m 0 min 0 min 114 W/m 20,9 km/h (4 Bft) 95,74 %
10.07.2017 18:46 25,2 C 25,0 C 25,0 C 59 % 0 lf 1006,6 hPa 0,0 l/m 0 min 0 min 118 W/m 25,1 km/h (4 Bft) 95,74 %
10.07.2017 18:48 25,2 C 25,0 C 25,0 C 59 % 0 lf 1006,6 hPa 0,0 l/m 0 min 0 min 123 W/m 20,9 km/h (4 Bft) 95,65 %
10.07.2017 18:50 25,1 C 25,0 C 25,0 C 59 % 0 lf 1006,7 hPa 0,0 l/m 0 min 0 min 124 W/m 25,1 km/h (4 Bft) 97,87 %
10.07.2017 18:52 25,1 C 25,0 C 25,0 C 59 % 0 lf 1006,7 hPa 0,0 l/m 0 min 0 min 117 W/m 33,5 km/h (5 Bft) 95,74 %
10.07.2017 18:54 24,9 C 24,4 C 24,4 C 60 % 0 lf 1006,8 hPa 0,0 l/m 0 min 0 min 111 W/m 29,3 km/h (5 Bft) 93,62 %
10.07.2017 18:56 24,8 C 24,4 C 24,4 C 60 % 0 lf 1006,8 hPa 0,0 l/m 0 min 0 min 103 W/m 33,5 km/h (5 Bft) 95,74 %
10.07.2017 18:58 24,7 C 23,9 C 23,9 C 60 % 0 lf 1006,8 hPa 0,0 l/m 0 min 0 min 94 W/m 33,5 km/h (5 Bft) 93,62 %
10.07.2017 19:00 24,6 C 23,9 C 23,9 C 61 % 0 lf 1006,8 hPa 0,0 l/m 0 min 0 min 86 W/m 16,7 km/h (3 Bft) 93,48 %
10.07.2017 19:02 24,5 C 23,9 C 23,9 C 61 % 0 lf 1006,8 hPa 0,0 l/m 0 min 0 min 77 W/m 29,3 km/h (5 Bft) 95,74 %
10.07.2017 19:04 24,4 C 23,9 C 23,9 C 61 % 0 lf 1006,8 hPa 0,0 l/m 0 min 0 min 70 W/m 29,3 km/h (5 Bft) 95,74 %
10.07.2017 19:06 24,3 C 23,9 C 23,3 C 61 % 0 lf 1006,8 hPa 0,0 l/m 0 min 0 min 65 W/m 25,1 km/h (4 Bft) 95,74 %
10.07.2017 19:08 24,2 C 23,3 C 23,3 C 61 % 0 lf 1006,8 hPa 0,0 l/m 0 min 0 min 60 W/m 35,6 km/h (5 Bft) 93,62 %
10.07.2017 19:10 24,1 C 23,3 C 23,3 C 62 % 0 lf 1006,9 hPa 0,0 l/m 0 min 0 min 54 W/m 25,1 km/h (4 Bft) 91,49 %
10.07.2017 19:12 24,0 C 23,3 C 22,8 C 62 % 0 lf 1006,8 hPa 0,0 l/m 0 min 0 min 50 W/m 23,0 km/h (4 Bft) 93,48 %
10.07.2017 19:14 23,9 C 23,3 C 22,8 C 62 % 0 lf 1006,9 hPa 0,0 l/m 0 min 0 min 40 W/m 23,0 km/h (4 Bft) 95,74 %
10.07.2017 19:16 23,8 C 23,3 C 22,8 C 62 % 0 lf 1006,9 hPa 0,0 l/m 0 min 0 min 33 W/m 27,2 km/h (4 Bft) 95,74 %
10.07.2017 19:18 23,8 C 22,8 C 22,8 C 62 % 0 lf 1007,0 hPa 0,0 l/m 0 min 0 min 30 W/m 25,1 km/h (4 Bft) 95,74 %
10.07.2017 19:20 23,7 C 22,8 C 22,2 C 62 % 0 lf 1007,0 hPa 0,0 l/m 0 min 0 min 28 W/m 27,2 km/h (4 Bft) 97,87 %
10.07.2017 19:22 23,6 C 22,8 C 22,2 C 63 % 0 lf 1007,1 hPa 0,0 l/m 0 min 0 min 29 W/m 25,1 km/h (4 Bft) 95,74 %
10.07.2017 19:24 23,5 C 22,8 C 22,2 C 63 % 0 lf 1007,2 hPa 0,0 l/m 0 min 0 min 31 W/m 29,3 km/h (5 Bft) 97,83 %
10.07.2017 19:26 23,4 C 22,8 C 22,2 C 63 % 0 lf 1007,2 hPa 0,0 l/m 0 min 0 min 33 W/m 14,6 km/h (3 Bft) 93,62 %
10.07.2017 19:28 23,3 C 22,2 C 22,2 C 64 % 0 lf 1007,2 hPa 0,0 l/m 0 min 0 min 33 W/m 25,1 km/h (4 Bft) 97,87 %
10.07.2017 19:30 23,2 C 22,2 C 21,7 C 64 % 0 lf 1007,1 hPa 0,0 l/m 0 min 0 min 35 W/m 29,3 km/h (5 Bft) 95,74 %
10.07.2017 19:32 23,1 C 22,2 C 21,7 C 64 % 0 lf 1007,2 hPa 0,0 l/m 0 min 0 min 35 W/m 23,0 km/h (4 Bft) 97,87 %
10.07.2017 19:34 23,0 C 22,2 C 21,7 C 65 % 0 lf 1007,1 hPa 0,0 l/m 0 min 0 min 35 W/m 29,3 km/h (5 Bft) 97,87 %
10.07.2017 19:36 22,9 C 22,2 C 21,7 C 65 % 0 lf 1007,2 hPa 0,0 l/m 0 min 0 min 38 W/m 29,3 km/h (5 Bft) 100,00 %
10.07.2017 19:38 22,8 C 22,2 C 21,7 C 65 % 0 lf 1007,2 hPa 0,0 l/m 0 min 0 min 43 W/m 35,6 km/h (5 Bft) 100,00 %
10.07.2017 19:40 22,7 C 22,2 C 21,7 C 65 % 0 lf 1007,2 hPa 0,0 l/m 0 min 0 min 47 W/m 29,3 km/h (5 Bft) 100,00 %
10.07.2017 19:42 22,6 C 22,2 C 21,7 C 66 % 0 lf 1007,3 hPa 0,0 l/m 0 min 0 min 50 W/m 29,3 km/h (5 Bft) 100,00 %
10.07.2017 19:44 22,6 C 22,2 C 21,7 C 66 % 0 lf 1007,2 hPa 0,0 l/m 0 min 0 min 52 W/m 23,0 km/h (4 Bft) 97,87 %
10.07.2017 19:46 22,4 C 22,2 C 21,7 C 66 % 0 lf 1007,3 hPa 0,0 l/m 0 min 0 min 56 W/m 31,4 km/h (5 Bft) 100,00 %
10.07.2017 19:48 22,4 C 21,7 C 21,7 C 67 % 0 lf 1007,2 hPa 0,0 l/m 0 min 0 min 56 W/m 31,4 km/h (5 Bft) 97,83 %
10.07.2017 19:50 22,3 C 21,7 C 21,1 C 67 % 0 lf 1007,3 hPa 0,0 l/m 0 min 0 min 54 W/m 27,2 km/h (4 Bft) 97,87 %
10.07.2017 19:52 22,2 C 21,7 C 21,1 C 67 % 0 lf 1007,3 hPa 0,0 l/m 0 min 0 min 53 W/m 29,3 km/h (5 Bft) 100,00 %
10.07.2017 19:54 22,2 C 21,7 C 21,1 C 68 % 0 lf 1007,3 hPa 0,0 l/m 0 min 0 min 56 W/m 31,4 km/h (5 Bft) 100,00 %
10.07.2017 19:56 22,1 C 21,1 C 20,6 C 68 % 0 lf 1007,4 hPa 0,0 l/m 0 min 0 min 58 W/m 31,4 km/h (5 Bft) 100,00 %
10.07.2017 19:58 21,9 C 21,1 C 18,3 C 70 % 0 lf 1007,4 hPa 0,0 l/m 0 min 0 min 55 W/m 23,0 km/h (4 Bft) 100,00 %
10.07.2017 20:00 21,9 C 21,1 C 17,8 C 70 % 0 lf 1007,4 hPa 0,0 l/m 0 min 0 min 53 W/m 18,8 km/h (3 Bft) 97,87 %
10.07.2017 20:02 21,8 C 21,1 C 17,2 C 70 % 0 lf 1007,5 hPa 0,0 l/m 0 min 0 min 49 W/m 14,6 km/h (3 Bft) 93,62 %
10.07.2017 20:04 21,8 C 21,1 C 17,8 C 70 % 0 lf 1007,5 hPa 0,0 l/m 0 min 0 min 47 W/m 14,6 km/h (3 Bft) 95,74 %
10.07.2017 20:06 21,8 C 21,1 C 18,3 C 70 % 0 lf 1007,5 hPa 0,0 l/m 0 min 0 min 46 W/m 14,6 km/h (3 Bft) 100,00 %
10.07.2017 20:08 21,7 C 21,1 C 18,9 C 70 % 0 lf 1007,5 hPa 0,0 l/m 0 min 0 min 45 W/m 23,0 km/h (4 Bft) 100,00 %
10.07.2017 20:10 21,7 C 21,1 C 19,4 C 70 % 0 lf 1007,5 hPa 0,0 l/m 0 min 0 min 43 W/m 16,7 km/h (3 Bft) 97,83 %
10.07.2017 20:12 21,7 C 21,1 C 19,4 C 71 % 0 lf 1007,5 hPa 0,0 l/m 0 min 0 min 41 W/m 20,9 km/h (4 Bft) 100,00 %
10.07.2017 20:14 21,6 C 21,1 C 19,4 C 70 % 0 lf 1007,5 hPa 0,0 l/m 0 min 0 min 39 W/m 25,1 km/h (4 Bft) 100,00 %
10.07.2017 20:16 21,6 C 21,1 C 19,4 C 70 % 0 lf 1007,5 hPa 0,0 l/m 0 min 0 min 37 W/m 14,6 km/h (3 Bft) 100,00 %
10.07.2017 20:18 21,5 C 21,1 C 19,4 C 71 % 0 lf 1007,5 hPa 0,0 l/m 0 min 0 min 37 W/m 29,3 km/h (5 Bft) 97,87 %
10.07.2017 20:21 21,4 C 21,1 C 20,0 C 71 % 0 lf 1007,5 hPa 0,0 l/m 0 min 0 min 35 W/m 27,2 km/h (4 Bft) 97,87 %
10.07.2017 20:24 21,3 C 21,1 C 20,0 C 71 % 0 lf 1007,6 hPa 0,0 l/m 0 min 0 min 35 W/m 27,2 km/h (4 Bft) 100,00 %
10.07.2017 20:26 21,3 C 21,1 C 20,0 C 71 % 0 lf 1007,6 hPa 0,0 l/m 0 min 0 min 31 W/m 27,2 km/h (4 Bft) 100,00 %
10.07.2017 20:28 21,3 C 20,6 C 20,0 C 70 % 0 lf 1007,6 hPa 0,0 l/m 0 min 0 min 30 W/m 27,2 km/h (4 Bft) 97,87 %
10.07.2017 20:30 21,2 C 20,6 C 20,0 C 71 % 0 lf 1007,6 hPa 0,0 l/m 0 min 0 min 32 W/m 14,6 km/h (3 Bft) 95,74 %
10.07.2017 20:32 21,2 C 20,6 C 20,0 C 71 % 0 lf 1007,6 hPa 0,0 l/m 0 min 0 min 32 W/m 14,6 km/h (3 Bft) 97,87 %
10.07.2017 20:34 21,2 C 20,6 C 20,0 C 71 % 0 lf 1007,7 hPa 0,0 l/m 0 min 0 min 29 W/m 8,4 km/h (2 Bft) 91,49 %
10.07.2017 20:36 21,2 C 20,6 C 19,4 C 71 % 0 lf 1007,7 hPa 0,0 l/m 0 min 0 min 26 W/m 10,5 km/h (2 Bft) 90,57 %
10.07.2017 20:38 21,2 C 20,6 C 20,0 C 71 % 0 lf 1007,8 hPa 0,0 l/m 0 min 0 min 25 W/m 20,9 km/h (4 Bft) 97,87 %
10.07.2017 20:40 21,1 C 20,6 C 20,0 C 71 % 0 lf 1007,7 hPa 0,0 l/m 0 min 0 min 24 W/m 12,6 km/h (3 Bft) 97,83 %
10.07.2017 20:42 21,1 C 20,6 C 20,0 C 70 % 0 lf 1007,7 hPa 0,0 l/m 0 min 0 min 23 W/m 14,6 km/h (3 Bft) 93,62 %
10.07.2017 20:44 21,1 C 20,6 C 19,4 C 71 % 0 lf 1007,7 hPa 0,0 l/m 0 min 0 min 23 W/m 16,7 km/h (3 Bft) 93,62 %
10.07.2017 20:46 21,0 C 20,6 C 19,4 C 71 % 0 lf 1007,8 hPa 0,0 l/m 0 min 0 min 23 W/m 18,8 km/h (3 Bft) 95,74 %
10.07.2017 20:48 21,0 C 20,6 C 19,4 C 71 % 0 lf 1007,7 hPa 0,0 l/m 0 min 0 min 25 W/m 20,9 km/h (4 Bft) 95,74 %
10.07.2017 20:50 21,0 C 20,6 C 19,4 C 71 % 0 lf 1007,7 hPa 0,0 l/m 0 min 0 min 23 W/m 14,6 km/h (3 Bft) 95,74 %
10.07.2017 20:52 21,0 C 20,6 C 19,4 C 71 % 0 lf 1007,8 hPa 0,0 l/m 0 min 0 min 23 W/m 14,6 km/h (3 Bft) 95,65 %
10.07.2017 20:54 21,0 C 20,6 C 19,4 C 71 % 0 lf 1007,8 hPa 0,0 l/m 0 min 0 min 21 W/m 8,4 km/h (2 Bft) 89,36 %
10.07.2017 20:56 21,0 C 20,6 C 19,4 C 72 % 0 lf 1007,8 hPa 0,0 l/m 0 min 0 min 19 W/m 8,4 km/h (2 Bft) 95,74 %
10.07.2017 20:58 20,9 C 20,6 C 19,4 C 72 % 0 lf 1007,9 hPa 0,0 l/m 0 min 0 min 17 W/m 12,6 km/h (3 Bft) 93,62 %
10.07.2017 21:00 20,9 C 20,6 C 19,4 C 72 % 0 lf 1008,0 hPa 0,0 l/m 0 min 0 min 16 W/m 14,6 km/h (3 Bft) 91,49 %
10.07.2017 21:02 20,9 C 20,6 C 19,4 C 72 % 0 lf 1007,9 hPa 0,0 l/m 0 min 0 min 18 W/m 18,8 km/h (3 Bft) 93,62 %
10.07.2017 21:04 20,9 C 20,6 C 19,4 C 72 % 0 lf 1007,9 hPa 0,0 l/m 0 min 0 min 19 W/m 12,6 km/h (3 Bft) 93,48 %
10.07.2017 21:06 20,8 C 20,6 C 19,4 C 72 % 0 lf 1007,8 hPa 0,0 l/m 0 min 0 min 21 W/m 16,7 km/h (3 Bft) 91,49 %
10.07.2017 21:08 20,8 C 20,6 C 19,4 C 72 % 0 lf 1007,8 hPa 0,0 l/m 0 min 0 min 22 W/m 10,5 km/h (2 Bft) 91,49 %
10.07.2017 21:10 20,8 C 20,6 C 19,4 C 72 % 0 lf 1007,8 hPa 0,0 l/m 0 min 0 min 25 W/m 12,6 km/h (3 Bft) 87,23 %
10.07.2017 21:12 20,8 C 20,6 C 19,4 C 72 % 0 lf 1007,9 hPa 0,0 l/m 0 min 0 min 24 W/m 23,0 km/h (4 Bft) 93,62 %
10.07.2017 21:14 20,8 C 20,6 C 19,4 C 72 % 0 lf 1008,0 hPa 0,0 l/m 0 min 0 min 22 W/m 10,5 km/h (2 Bft) 91,30 %
10.07.2017 21:16 20,7 C 20,0 C 19,4 C 73 % 0 lf 1008,0 hPa 0,0 l/m 0 min 0 min 19 W/m 12,6 km/h (3 Bft) 89,36 %
10.07.2017 21:18 20,7 C 20,0 C 19,4 C 73 % 0 lf 1008,0 hPa 0,0 l/m 0 min 0 min 16 W/m 10,5 km/h (2 Bft) 93,62 %
10.07.2017 21:20 20,7 C 20,0 C 19,4 C 73 % 0 lf 1008,0 hPa 0,0 l/m 0 min 0 min 14 W/m 8,4 km/h (2 Bft) 91,49 %
10.07.2017 21:22 20,7 C 20,0 C 19,4 C 73 % 0 lf 1008,0 hPa 0,0 l/m 0 min 0 min 14 W/m 14,6 km/h (3 Bft) 93,62 %
10.07.2017 21:24 20,7 C 20,0 C 19,4 C 73 % 0 lf 1007,9 hPa 0,0 l/m 0 min 0 min 12 W/m 14,6 km/h (3 Bft) 91,49 %
10.07.2017 21:26 20,7 C 20,0 C 19,4 C 73 % 0 lf 1008,0 hPa 0,0 l/m 0 min 0 min 12 W/m 12,6 km/h (3 Bft) 89,13 %
10.07.2017 21:28 20,7 C 20,0 C 19,4 C 73 % 0 lf 1007,8 hPa 0,0 l/m 0 min 0 min 11 W/m 12,6 km/h (3 Bft) 93,62 %
10.07.2017 21:30 20,7 C 20,0 C 19,4 C 73 % 0 lf 1007,9 hPa 0,0 l/m 0 min 0 min 11 W/m 10,5 km/h (2 Bft) 87,23 %
10.07.2017 21:32 20,7 C 20,0 C 19,4 C 74 % 0 lf 1007,9 hPa 0,0 l/m 0 min 0 min 11 W/m 6,3 km/h (2 Bft) 89,36 %
10.07.2017 21:34 20,6 C 20,0 C 19,4 C 74 % 0 lf 1007,9 hPa 0,0 l/m 0 min 0 min 11 W/m 8,4 km/h (2 Bft) 91,49 %
10.07.2017 21:36 20,6 C 20,0 C 19,4 C 74 % 0 lf 1007,9 hPa 0,0 l/m 0 min 0 min 11 W/m 10,5 km/h (2 Bft) 91,49 %
10.07.2017 21:38 20,6 C 20,0 C 19,4 C 74 % 0 lf 1007,9 hPa 0,0 l/m 0 min 0 min 11 W/m 16,7 km/h (3 Bft) 91,30 %
10.07.2017 21:40 20,6 C 20,0 C 19,4 C 74 % 0 lf 1008,0 hPa 0,0 l/m 0 min 0 min 11 W/m 10,5 km/h (2 Bft) 87,23 %
10.07.2017 21:42 20,6 C 20,0 C 19,4 C 74 % 0 lf 1008,0 hPa 0,0 l/m 0 min 0 min 11 W/m 8,4 km/h (2 Bft) 91,49 %
10.07.2017 21:44 20,6 C 20,0 C 18,9 C 74 % 0 lf 1008,0 hPa 0,0 l/m 0 min 0 min 10 W/m 10,5 km/h (2 Bft) 87,23 %
10.07.2017 21:46 20,6 C 20,0 C 18,9 C 74 % 0 lf 1008,0 hPa 0,0 l/m 0 min 0 min 9 W/m 10,5 km/h (2 Bft) 87,23 %
10.07.2017 21:48 20,6 C 20,0 C 18,9 C 74 % 0 lf 1008,0 hPa 0,0 l/m 0 min 0 min 7 W/m 12,6 km/h (3 Bft) 91,49 %
10.07.2017 21:50 20,5 C 20,0 C 18,9 C 74 % 0 lf 1008,0 hPa 0,0 l/m 0 min 0 min 7 W/m 10,5 km/h (2 Bft) 89,13 %
10.07.2017 21:52 20,5 C 19,4 C 18,9 C 74 % 0 lf 1008,1 hPa 0,0 l/m 0 min 0 min 7 W/m 12,6 km/h (3 Bft) 91,49 %
10.07.2017 21:54 20,5 C 19,4 C 18,3 C 75 % 0 lf 1008,1 hPa 0,0 l/m 0 min 0 min 7 W/m 8,4 km/h (2 Bft) 91,49 %
10.07.2017 21:56 20,4 C 19,4 C 18,3 C 75 % 0 lf 1008,2 hPa 0,0 l/m 0 min 0 min 6 W/m 8,4 km/h (2 Bft) 89,36 %
10.07.2017 21:58 20,4 C 19,4 C 18,3 C 75 % 0 lf 1008,2 hPa 0,0 l/m 0 min 0 min 5 W/m 10,5 km/h (2 Bft) 89,36 %
10.07.2017 22:00 20,4 C 19,4 C 18,3 C 75 % 0 lf 1008,3 hPa 0,0 l/m 0 min 0 min 5 W/m 6,3 km/h (2 Bft) 93,62 %
10.07.2017 22:02 20,4 C 19,4 C 18,3 C 75 % 0 lf 1008,4 hPa 0,0 l/m 0 min 0 min 5 W/m 6,3 km/h (2 Bft) 89,13 %
10.07.2017 22:04 20,4 C 19,4 C 18,3 C 75 % 0 lf 1008,5 hPa 0,0 l/m 0 min 0 min 5 W/m 8,4 km/h (2 Bft) 91,49 %
10.07.2017 22:06 20,3 C 19,4 C 18,3 C 75 % 0 lf 1008,5 hPa 0,0 l/m 0 min 0 min 5 W/m 6,3 km/h (2 Bft) 92,00 %
10.07.2017 22:08 20,3 C 19,4 C 18,3 C 75 % 0 lf 1008,4 hPa 0,0 l/m 0 min 0 min 5 W/m 6,3 km/h (2 Bft) 93,62 %
10.07.2017 22:10 20,3 C 19,4 C 18,3 C 75 % 0 lf 1008,4 hPa 0,0 l/m 0 min 0 min 5 W/m 6,3 km/h (2 Bft) 89,36 %
10.07.2017 22:12 20,3 C 19,4 C 18,3 C 75 % 0 lf 1008,4 hPa 0,0 l/m 0 min 0 min 5 W/m 6,3 km/h (2 Bft) 89,36 %
10.07.2017 22:14 20,3 C 18,9 C 18,3 C 75 % 0 lf 1008,4 hPa 0,0 l/m 0 min 0 min 5 W/m 4,2 km/h (1 Bft) 93,48 %
10.07.2017 22:16 20,3 C 18,9 C 18,3 C 75 % 0 lf 1008,4 hPa 0,0 l/m 0 min 0 min 5 W/m 4,2 km/h (1 Bft) 93,62 %
10.07.2017 22:18 20,2 C 18,9 C 17,8 C 75 % 0 lf 1008,5 hPa 0,0 l/m 0 min 0 min 5 W/m 4,2 km/h (1 Bft) 89,36 %
10.07.2017 22:20 20,2 C 18,9 C 17,8 C 75 % 0 lf 1008,4 hPa 0,0 l/m 0 min 0 min 5 W/m 4,2 km/h (1 Bft) 93,62 %
10.07.2017 22:22 20,2 C 18,9 C 17,8 C 75 % 0 lf 1008,5 hPa 0,0 l/m 0 min 0 min 5 W/m 6,3 km/h (2 Bft) 97,87 %
10.07.2017 22:24 20,2 C 18,9 C 17,8 C 75 % 0 lf 1008,6 hPa 0,0 l/m 0 min 0 min 5 W/m 4,2 km/h (1 Bft) 95,74 %
10.07.2017 22:26 20,2 C 18,9 C 17,8 C 75 % 0 lf 1008,6 hPa 0,0 l/m 0 min 0 min 5 W/m 2,1 km/h (1 Bft) 97,83 %
10.07.2017 22:28 20,2 C 18,9 C 17,8 C 75 % 0 lf 1008,6 hPa 0,0 l/m 0 min 0 min 5 W/m 2,1 km/h (1 Bft) 82,98 %
10.07.2017 22:30 20,1 C 18,9 C 18,3 C 75 % 0 lf 1008,6 hPa 0,0 l/m 0 min 0 min 5 W/m 4,2 km/h (1 Bft) 97,87 %
10.07.2017 22:32 20,1 C 18,9 C 18,3 C 75 % 0 lf 1008,6 hPa 0,0 l/m 0 min 0 min 5 W/m 0,0 km/h (0 Bft) 86,49 %
10.07.2017 22:34 20,1 C 18,9 C 18,3 C 75 % 0 lf 1008,6 hPa 0,0 l/m 0 min 0 min 5 W/m 0,0 km/h (0 Bft) 93,62 %
10.07.2017 22:36 20,1 C 18,9 C 18,3 C 75 % 0 lf 1008,6 hPa 0,0 l/m 0 min 0 min 5 W/m 2,1 km/h (1 Bft) 98,18 %
10.07.2017 22:38 20,1 C 18,9 C 18,3 C 75 % 0 lf 1008,7 hPa 0,0 l/m 0 min 0 min 5 W/m 4,2 km/h (1 Bft) 95,74 %
10.07.2017 22:40 20,0 C 18,9 C 18,3 C 75 % 0 lf 1008,7 hPa 0,0 l/m 0 min 0 min 5 W/m 2,1 km/h (1 Bft) 91,49 %
10.07.2017 22:42 20,0 C 18,9 C 18,3 C 76 % 0 lf 1008,7 hPa 0,0 l/m 0 min 0 min 5 W/m 2,1 km/h (1 Bft) 93,62 %
10.07.2017 22:44 20,0 C 18,9 C 18,3 C 76 % 0 lf 1008,7 hPa 0,0 l/m 0 min 0 min 5 W/m 0,0 km/h (0 Bft) 93,62 %
10.07.2017 22:46 20,0 C 18,9 C 18,3 C 76 % 0 lf 1008,7 hPa 0,0 l/m 0 min 0 min 5 W/m 0,0 km/h (0 Bft) 91,49 %
10.07.2017 22:48 19,9 C 18,9 C 18,3 C 76 % 0 lf 1008,8 hPa 0,0 l/m 0 min 0 min 5 W/m 0,0 km/h (0 Bft) 95,65 %
10.07.2017 22:50 19,9 C 18,9 C 18,3 C 76 % 0 lf 1008,8 hPa 0,0 l/m 0 min 0 min 5 W/m 0,0 km/h (0 Bft) 97,87 %
10.07.2017 22:52 19,9 C 18,9 C 18,3 C 76 % 0 lf 1008,7 hPa 0,0 l/m 0 min 0 min 5 W/m 0,0 km/h (0 Bft) 91,67 %
10.07.2017 22:54 19,9 C 18,9 C 18,3 C 77 % 0 lf 1008,8 hPa 0,0 l/m 0 min 0 min 5 W/m 0,0 km/h (0 Bft) 93,62 %
10.07.2017 22:56 19,9 C 18,9 C 18,3 C 77 % 0 lf 1008,8 hPa 0,0 l/m 0 min 0 min 5 W/m 0,0 km/h (0 Bft) 93,62 %
10.07.2017 22:58 19,9 C 18,9 C 18,3 C 77 % 0 lf 1008,8 hPa 0,0 l/m 0 min 0 min 5 W/m 0,0 km/h (0 Bft) 93,62 %
10.07.2017 23:00 19,9 C 18,9 C 18,3 C 77 % 0 lf 1008,8 hPa 0,0 l/m 0 min 0 min 5 W/m 0,0 km/h (0 Bft) 89,13 %
10.07.2017 23:02 19,8 C 18,9 C 18,3 C 77 % 0 lf 1008,8 hPa 0,0 l/m 0 min 0 min 5 W/m 0,0 km/h (0 Bft) 95,74 %
10.07.2017 23:04 19,8 C 18,9 C 18,3 C 77 % 0 lf 1008,8 hPa 0,0 l/m 0 min 0 min 5 W/m 0,0 km/h (0 Bft) 95,74 %
10.07.2017 23:06 19,8 C 18,9 C 18,3 C 77 % 0 lf 1008,8 hPa 0,0 l/m 0 min 0 min 5 W/m 0,0 km/h (0 Bft) 91,49 %
10.07.2017 23:08 19,8 C 18,9 C 18,3 C 77 % 0 lf 1008,8 hPa 0,0 l/m 0 min 0 min 5 W/m 0,0 km/h (0 Bft) 95,74 %
10.07.2017 23:10 19,8 C 18,9 C 18,3 C 77 % 0 lf 1008,8 hPa 0,0 l/m 0 min 0 min 5 W/m 0,0 km/h (0 Bft) 97,87 %
10.07.2017 23:12 19,8 C 18,9 C 18,3 C 77 % 0 lf 1008,8 hPa 0,0 l/m 0 min 0 min 5 W/m 0,0 km/h (0 Bft) 93,48 %
10.07.2017 23:14 19,8 C 18,9 C 18,3 C 77 % 0 lf 1008,8 hPa 0,0 l/m 0 min 0 min 5 W/m 0,0 km/h (0 Bft) 93,62 %
10.07.2017 23:16 19,8 C 18,9 C 17,8 C 77 % 0 lf 1008,8 hPa 0,0 l/m 0 min 0 min 5 W/m 0,0 km/h (0 Bft) 93,62 %
10.07.2017 23:18 19,8 C 18,9 C 17,8 C 77 % 0 lf 1008,9 hPa 0,0 l/m 0 min 0 min 5 W/m 0,0 km/h (0 Bft) 93,62 %
10.07.2017 23:20 19,7 C 18,9 C 17,8 C 77 % 0 lf 1008,8 hPa 0,0 l/m 0 min 0 min 5 W/m 0,0 km/h (0 Bft) 93,62 %
10.07.2017 23:22 19,7 C 18,3 C 17,8 C 77 % 0 lf 1008,8 hPa 0,0 l/m 0 min 0 min 5 W/m 0,0 km/h (0 Bft) 95,65 %
10.07.2017 23:24 19,7 C 18,3 C 17,8 C 77 % 0 lf 1008,8 hPa 0,0 l/m 0 min 0 min 5 W/m 0,0 km/h (0 Bft) 95,74 %
10.07.2017 23:26 19,7 C 18,3 C 17,8 C 77 % 0 lf 1008,7 hPa 0,0 l/m 0 min 0 min 5 W/m 0,0 km/h (0 Bft) 93,62 %
10.07.2017 23:28 19,7 C 18,3 C 17,8 C 77 % 0 lf 1008,7 hPa 0,0 l/m 0 min 0 min 5 W/m 0,0 km/h (0 Bft) 95,74 %
10.07.2017 23:30 19,7 C 18,3 C 17,8 C 77 % 0 lf 1008,8 hPa 0,0 l/m 0 min 0 min 5 W/m 0,0 km/h (0 Bft) 95,74 %
10.07.2017 23:32 19,7 C 18,3 C 17,8 C 77 % 0 lf 1008,7 hPa 0,0 l/m 0 min 0 min 4 W/m 0,0 km/h (0 Bft) 97,22 %
10.07.2017 23:34 19,6 C 18,3 C 17,8 C 77 % 0 lf 1008,7 hPa 0,0 l/m 0 min 0 min 0 W/m 0,0 km/h (0 Bft) 95,74 %
10.07.2017 23:36 19,6 C 18,3 C 17,8 C 77 % 0 lf 1008,7 hPa 0,0 l/m 0 min 0 min 0 W/m 0,0 km/h (0 Bft) 95,74 %
10.07.2017 23:38 19,6 C 18,3 C 17,8 C 77 % 0 lf 1008,7 hPa 0,0 l/m 0 min 0 min 0 W/m 0,0 km/h (0 Bft) 95,65 %
10.07.2017 23:40 19,6 C 18,3 C 17,8 C 77 % 0 lf 1008,6 hPa 0,0 l/m 0 min 0 min 0 W/m 0,0 km/h (0 Bft) 95,74 %
10.07.2017 23:42 19,6 C 18,3 C 17,8 C 77 % 0 lf 1008,6 hPa 0,0 l/m 0 min 0 min 0 W/m 0,0 km/h (0 Bft) 93,62 %
10.07.2017 23:44 19,6 C 18,3 C 17,8 C 77 % 0 lf 1008,6 hPa 0,0 l/m 0 min 0 min 0 W/m 0,0 km/h (0 Bft) 97,87 %
10.07.2017 23:46 19,5 C 18,3 C 17,2 C 77 % 0 lf 1008,7 hPa 0,0 l/m 0 min 0 min 0 W/m 0,0 km/h (0 Bft) 93,62 %
10.07.2017 23:48 19,5 C 18,3 C 17,2 C 77 % 0 lf 1008,7 hPa 0,0 l/m 0 min 0 min 0 W/m 0,0 km/h (0 Bft) 97,87 %
10.07.2017 23:50 19,5 C 18,3 C 17,2 C 78 % 0 lf 1008,7 hPa 0,0 l/m 0 min 0 min 0 W/m 0,0 km/h (0 Bft) 91,30 %
10.07.2017 23:52 19,5 C 18,3 C 17,2 C 78 % 0 lf 1008,7 hPa 0,0 l/m 0 min 0 min 0 W/m 0,0 km/h (0 Bft) 98,25 %
10.07.2017 23:54 19,4 C 18,3 C 17,2 C 78 % 0 lf 1008,8 hPa 0,0 l/m 0 min 0 min 0 W/m 0,0 km/h (0 Bft) 95,74 %
10.07.2017 23:56 19,4 C 18,3 C 17,2 C 78 % 0 lf 1008,8 hPa 0,0 l/m 0 min 0 min 0 W/m 0,0 km/h (0 Bft) 97,87 %
10.07.2017 23:58 19,4 C 18,3 C 17,2 C 79 % 0 lf 1008,8 hPa 0,0 l/m 0 min 0 min 0 W/m 0,0 km/h (0 Bft) 95,65 %
_ Min-Zeit 07:04 04:54 05:06 14:50 00:00 15:12 - - - - 02:10 22:28
Minimum _ 17,0 C 16,1 C 14,4 C 41 % 0 lf 1005,8 hPa - - - - 0,0 km/h (0 Bft) 82,98 %
_ Max-Zeit 14:44 13:24 14:42 06:24 04:44 00:00 00:00 12:10 03:34 13:00 19:08 01:24
Maximum _ 29,6 C 37,2 C 39,4 C 87 % 15 lf 1009,2 hPa 0,0 l/m 4 min 2 min 1013 W/m 35,6 km/h
W-SW (5 Bft)
100,00 %
Durchschnitt _ 22,3 C 23,8 C 23,2 C 69 % 1 lf 1007,2 hPa #0,0 l/m #7:24 h #1:10 h 309 W/m 11,4 km/h (2 Bft) 95,98 %
© 2017 W. Hausmann